GFSNIL_sfc_wetblb_000.txt.gz
Wetbulb
71.45 67.37 65.55 64.48 63.29 63.05 63.13 64.07 64.96 64.58 64.97 63.32 63.66 64.93 65.85 65.01 64.95 65.21 65.76 65.18 64.37 64.29
68.91 65.10 64.12 63.65 63.40 63.33 63.77 63.81 64.14 64.04 64.22 63.32 63.45 65.54 65.49 64.72 65.24 65.42 65.64 65.49 64.92 63.81
66.70 64.36 63.22 63.02 63.04 62.26 62.57 63.54 63.69 63.85 63.68 63.68 63.89 65.01 65.05 64.27 64.68 64.85 64.61 64.50 64.34 64.60
64.59 63.67 63.23 63.28 63.76 62.83 62.32 63.05 63.50 63.50 63.54 63.85 63.78 64.57 64.04 63.95 64.58 64.52 64.76 64.76 64.36 64.39
64.39 64.08 63.71 63.88 64.11 63.73 63.11 62.87 63.57 63.79 63.94 64.38 64.73 64.47 63.90 63.81 65.05 64.34 64.21 64.50 64.08 63.88
64.18 64.49 64.23 64.25 64.14 63.68 63.09 62.81 63.21 64.01 63.71 63.51 63.39 62.70 62.94 63.75 64.08 64.04 64.06 64.10 63.66 63.55
64.42 64.23 65.09 64.85 64.47 63.81 63.68 63.20 63.13 63.22 63.37 62.97 62.38 62.65 63.27 63.59 63.62 63.51 63.59 64.25 64.15 63.16
65.76 65.95 65.18 64.51 64.72 64.28 63.55 63.72 63.63 63.15 62.85 63.08 62.80 62.97 63.71 64.01 63.70 63.55 63.94 64.52 63.75 62.87
66.50 65.74 65.33 65.65 65.54 63.97 63.66 63.31 63.40 62.67 63.21 62.82 63.10 61.63 62.30 64.38 64.09 64.41 63.77 62.98 62.39 61.15
65.22 64.60 64.57 65.13 65.01 64.04 62.82 62.92 62.52 62.89 62.98 62.96 64.02 60.15 60.30 62.56 64.52 62.89 61.74 61.48 60.88 59.94
64.96 64.29 63.94 63.45 62.87 63.79 62.96 62.38 62.72 62.78 63.13 62.89 63.34 59.28 58.91 61.25 63.94 62.97 61.63 60.46 59.80 59.63
65.52 65.12 65.38 63.96 63.62 63.59 63.68 63.30 62.87 63.59 63.44 62.83 62.99 58.33 58.10 59.76 62.82 61.97 61.24 60.02 58.74 57.69
65.83 64.25 63.77 64.47 64.56 63.90 63.89 63.77 64.07 63.45 62.77 60.46 62.48 58.09 57.82 58.64 61.48 60.15 58.46 57.86 58.38 56.06
66.94 66.03 65.49 64.16 63.35 62.86 63.83 63.69 63.08 61.92 60.78 61.94 62.45 62.70 57.00 54.34 59.31 58.50 57.42 56.89 56.47 55.86

GFSNIL_sfc_wetblb_003.txt.gz
Wetbulb
76.98 76.20 76.06 75.93 73.93 72.45 72.33 71.84 71.49 71.14 71.58 71.94 70.63 69.81 70.12 68.93 68.57 69.82 69.05 69.81 69.81 67.64
77.20 76.79 76.34 75.80 73.83 72.45 73.13 71.00 70.73 70.80 70.99 70.52 68.82 69.33 70.19 67.86 68.43 69.27 69.54 69.53 69.97 68.67
76.28 76.64 76.57 75.86 72.89 71.69 71.79 70.97 70.60 70.46 70.01 69.61 68.82 68.71 69.99 68.59 68.86 68.84 68.00 68.24 69.34 69.28
75.91 75.97 76.21 73.67 73.18 69.14 70.13 70.66 70.07 70.09 69.41 69.26 69.03 69.38 69.27 69.48 68.63 67.96 68.52 69.38 69.11 69.09
75.47 72.51 72.15 73.17 68.38 69.33 68.35 70.00 70.05 69.83 69.51 69.39 69.34 69.66 69.24 68.49 67.25 67.68 67.69 67.95 68.69 68.19
73.67 72.58 73.50 66.63 69.03 67.44 67.57 67.59 68.57 68.90 68.80 68.95 69.30 69.72 69.97 69.17 68.04 68.24 68.16 68.15 68.16 68.15
72.65 72.35 68.82 68.50 65.94 67.03 66.65 66.90 66.88 68.00 69.30 69.11 69.51 69.28 68.70 67.78 67.79 68.34 68.20 68.63 68.61 68.57
72.80 71.95 69.43 66.29 65.48 64.96 65.51 65.62 65.60 66.43 68.15 68.75 68.22 67.69 67.95 68.09 68.10 68.71 68.60 68.84 69.34 69.21
72.00 69.71 68.78 68.62 65.74 65.25 64.96 65.09 66.36 66.66 66.49 67.15 66.53 62.97 62.57 66.34 68.25 68.85 68.95 68.20 68.67 68.90
70.50 68.75 69.35 68.61 68.02 66.11 63.60 64.66 65.80 66.87 66.06 67.62 67.56 61.69 61.24 63.42 67.86 68.33 68.35 67.57 67.53 67.11
69.97 69.11 68.82 69.17 68.08 67.14 65.11 65.32 67.15 67.48 68.04 67.67 68.29 60.16 59.18 61.66 67.21 66.24 67.21 67.41 67.36 66.56
69.48 69.21 68.68 68.59 68.50 68.02 66.79 66.91 67.08 66.71 67.17 67.45 67.54 58.96 58.51 62.00 65.33 65.24 64.01 66.60 66.58 64.68
69.52 68.91 67.99 68.77 68.73 68.01 67.83 66.22 66.40 66.76 67.82 64.10 67.01 57.32 57.30 61.73 62.55 63.17 62.79 65.40 63.49 57.23
69.98 69.54 69.66 69.67 68.62 67.61 67.27 66.73 67.03 66.42 67.39 66.92 66.45 64.80 55.19 55.01 63.92 63.69 63.25 63.58 63.07 61.99

GFSNIL_sfc_wetblb_006.txt.gz
Wetbulb
79.11 77.74 77.17 77.32 75.03 73.38 72.33 72.21 74.11 75.31 73.72 72.80 72.34 72.15 70.94 69.29 69.14 69.98 69.18 69.51 69.89 67.81
79.28 78.51 77.80 78.20 77.34 74.85 75.48 72.44 74.40 74.34 73.11 71.82 72.18 71.10 70.73 68.60 69.25 69.05 69.26 68.90 69.35 68.73
78.09 78.50 78.37 78.20 77.67 76.96 75.93 75.33 73.91 73.33 71.76 71.47 71.11 70.38 70.64 69.34 69.70 69.13 67.12 66.50 68.11 69.05
77.48 77.76 78.34 78.01 77.87 77.53 76.80 75.01 73.57 72.86 71.27 71.03 70.22 70.24 70.12 69.98 68.84 68.08 68.15 68.02 68.62 69.07
77.58 77.66 77.59 78.12 77.07 76.03 76.34 73.96 73.08 71.92 70.97 71.20 70.35 70.30 70.01 68.97 68.24 67.67 67.20 67.77 68.62 68.82
76.69 77.08 77.34 77.45 76.60 76.58 74.18 71.50 70.11 69.81 70.17 70.62 69.90 70.18 70.45 70.14 69.50 68.42 67.99 68.44 68.46 68.53
76.85 76.75 76.94 76.92 73.70 71.62 71.82 70.07 68.21 68.70 69.08 69.00 70.37 70.29 70.17 69.71 69.74 68.52 67.61 68.70 68.74 68.97
77.77 77.54 76.61 75.50 73.32 70.90 70.46 69.93 66.13 67.93 67.02 68.95 69.78 67.99 69.80 69.42 68.53 68.13 68.29 69.05 69.18 69.64
77.31 76.97 75.94 74.44 72.42 71.49 70.15 68.83 67.97 66.63 66.52 67.10 67.94 63.84 63.65 67.27 68.52 68.80 68.91 68.58 69.69 70.18
76.88 75.54 74.43 73.21 72.11 70.52 69.46 68.83 68.72 68.43 67.61 67.47 69.23 62.12 62.14 63.86 67.96 68.57 68.96 69.75 69.55 68.30
75.70 74.48 73.68 72.79 71.33 70.52 68.68 68.37 69.07 69.56 68.97 68.49 69.23 62.07 60.92 63.45 68.65 69.43 70.10 69.52 68.65 67.86
74.73 73.53 71.76 71.18 71.03 71.40 69.52 69.02 69.75 70.24 69.77 69.30 69.64 58.71 58.78 63.00 68.64 68.80 68.78 67.03 67.16 66.44
74.16 73.60 72.01 71.62 71.80 71.13 70.69 69.70 69.12 69.29 69.78 66.62 70.14 57.54 57.05 61.34 67.98 67.74 66.14 64.72 65.74 60.06
73.78 73.40 73.39 72.61 71.44 71.01 70.03 69.42 69.87 69.05 69.72 69.46 66.45 67.98 55.67 56.01 66.82 65.47 64.60 64.96 67.10 66.58

GFSNIL_sfc_wetblb_009.txt.gz
Wetbulb
80.85 77.13 76.49 77.78 76.14 73.99 73.29 74.02 78.03 75.58 75.01 73.92 72.92 72.75 72.72 70.15 69.37 71.55 69.68 69.60 71.18 68.19
80.76 80.27 77.41 78.96 79.21 76.15 77.16 74.16 74.72 75.31 74.57 73.64 72.29 72.77 72.29 69.19 70.98 70.40 70.41 70.63 71.23 69.00
79.91 80.74 80.56 81.16 80.00 78.27 77.73 77.59 76.25 75.68 74.50 73.24 73.23 73.21 72.85 71.44 71.65 70.69 68.98 67.54 71.04 71.04
79.06 79.57 80.47 79.94 79.80 79.84 78.72 78.43 76.77 76.26 75.02 72.90 72.15 72.25 72.68 71.70 70.69 70.54 70.86 70.83 69.21 70.11
79.93 79.80 79.22 79.95 80.23 80.09 78.69 78.61 76.97 75.99 74.37 72.97 70.74 68.71 71.92 70.26 70.17 68.63 68.34 68.73 70.09 69.11
78.90 79.52 79.33 79.76 79.87 79.71 79.46 78.32 75.98 75.63 74.31 72.25 72.16 72.24 72.30 71.92 69.30 69.65 69.62 69.73 70.11 69.59
78.90 79.15 79.22 80.15 79.71 79.96 79.07 78.31 75.81 74.98 73.42 72.59 71.89 71.81 71.64 71.48 71.13 71.32 70.76 70.69 70.60 70.51
79.83 79.92 79.84 79.43 80.04 79.55 78.88 77.77 75.43 74.53 72.49 71.95 70.66 70.08 71.34 70.69 69.86 70.09 69.88 69.90 69.73 70.41
80.46 80.02 79.82 79.85 79.95 78.68 77.49 76.29 74.95 72.17 70.26 69.07 68.21 64.51 64.80 69.08 68.58 71.23 70.25 69.36 70.77 70.96
81.11 80.32 80.28 79.47 78.06 76.65 74.86 74.91 73.32 71.16 68.24 67.96 70.15 62.51 62.73 64.63 69.06 69.75 70.41 71.03 70.16 69.25
80.75 79.91 79.58 78.06 76.51 74.79 74.08 73.69 72.13 70.30 69.84 70.40 70.74 62.48 61.16 64.29 69.07 69.74 69.58 71.23 71.50 71.19
78.65 78.09 77.45 75.83 75.22 74.12 72.90 72.48 70.48 69.54 68.92 69.97 71.30 59.95 59.37 63.73 68.95 68.34 70.30 71.16 71.40 70.34
78.42 77.33 75.81 75.47 74.71 74.12 73.98 71.97 70.93 69.46 69.89 67.88 71.07 58.51 57.72 62.58 66.52 66.95 68.24 69.27 70.75 62.26
76.66 76.59 76.19 75.05 74.86 73.89 73.10 71.68 70.13 68.93 70.73 72.02 70.68 69.67 55.70 56.24 66.72 67.94 67.91 67.61 67.14 66.93

GFSNIL_sfc_wetblb_012.txt.gz
Wetbulb
78.20 77.84 77.19 77.56 77.12 76.17 75.12 74.42 75.12 75.02 74.53 74.77 73.24 73.19 73.21 72.08 70.25 71.23 70.66 69.53 70.42 69.32
78.37 78.10 77.50 77.41 77.36 77.62 76.50 77.36 74.63 74.57 75.14 73.91 73.17 73.31 73.81 70.24 69.98 71.86 71.70 71.04 70.15 69.17
78.93 78.39 77.61 77.57 77.51 76.02 77.20 76.25 75.49 75.08 74.57 73.67 72.77 71.48 72.16 69.74 71.60 70.00 70.27 69.77 69.73 69.25
78.62 78.79 77.91 78.36 77.38 77.82 76.72 76.18 75.58 74.94 74.00 73.41 72.12 72.23 71.48 70.52 69.34 69.47 69.29 69.30 69.59 68.93
78.64 78.64 78.36 77.37 78.45 77.60 78.22 77.03 75.48 75.20 74.10 73.18 70.97 71.91 70.01 68.90 68.76 69.86 68.88 68.76 68.94 68.15
77.95 78.06 77.99 78.28 77.47 78.89 77.65 76.68 75.05 74.98 73.95 72.97 70.63 71.17 70.08 69.37 69.44 69.36 67.74 68.42 68.32 67.56
77.33 77.61 77.70 78.11 78.47 78.00 78.06 76.70 76.25 74.70 73.96 73.33 71.08 70.37 69.68 70.14 69.98 69.56 68.42 69.76 69.34 68.64
77.82 77.92 78.15 77.86 78.37 78.42 78.08 77.77 77.22 75.62 74.22 73.81 71.32 70.33 70.50 70.52 70.00 69.54 68.25 70.47 69.37 69.56
77.24 77.89 77.41 77.92 77.77 78.30 78.16 78.16 77.21 75.73 73.77 72.81 70.96 65.47 65.78 69.63 69.81 69.93 68.04 68.85 69.86 69.51
76.95 77.47 77.70 77.80 77.78 77.92 77.79 77.86 76.63 75.95 73.57 71.85 70.91 62.95 62.86 66.28 69.55 67.67 68.00 70.03 69.38 68.93
77.77 77.72 77.84 77.79 77.72 78.02 77.96 77.01 75.93 74.23 71.35 70.25 69.29 63.17 61.96 63.76 66.77 67.06 68.28 69.37 69.70 68.59
79.93 78.87 78.65 78.37 78.15 77.99 76.53 74.50 73.28 71.44 68.81 68.09 69.46 61.96 59.71 61.82 66.45 65.91 67.34 69.12 68.28 68.31
79.97 79.39 78.62 78.36 77.36 75.02 73.52 72.80 72.32 69.52 68.87 66.40 69.28 61.38 58.79 60.31 67.15 66.15 67.34 69.00 68.36 62.67
79.58 79.28 78.91 78.15 75.73 73.16 73.41 73.82 71.05 69.25 69.08 69.57 68.07 69.44 56.00 56.37 67.97 68.00 67.99 67.25 66.96 68.27

GFSNIL_sfc_wetblb_015.txt.gz
Wetbulb
74.64 73.21 72.64 72.58 72.76 72.76 72.98 72.56 72.50 71.78 70.21 68.98 67.39 70.05 68.85 67.43 66.25 66.39 65.05 63.83 63.78 63.80
74.39 74.58 74.29 73.49 73.17 72.67 72.00 72.12 72.34 71.96 70.46 69.62 68.32 67.30 68.33 67.14 65.39 66.00 65.47 63.20 63.53 62.94
75.23 74.58 74.73 74.11 72.95 73.42 71.87 72.31 71.71 72.01 70.98 70.97 68.80 68.31 68.66 65.84 66.78 65.38 65.99 65.47 64.68 63.55
75.82 75.59 74.86 74.52 73.52 72.80 73.14 71.80 71.66 71.79 71.64 70.19 69.24 69.22 68.41 65.69 65.43 66.48 64.15 64.89 63.62 64.97
76.37 76.36 75.34 74.42 74.09 74.12 72.64 72.72 72.73 71.95 71.44 70.41 69.53 68.47 68.33 65.99 66.00 64.78 65.57 64.72 63.82 63.32
75.55 76.06 75.83 74.72 74.91 74.72 74.67 73.38 72.65 72.50 71.09 70.56 69.89 68.46 68.46 66.75 64.78 65.79 65.54 65.35 65.10 64.23
75.58 75.72 75.87 75.93 74.58 74.95 75.35 74.41 71.76 71.97 71.61 70.90 70.01 68.41 68.25 66.54 65.36 65.79 66.02 65.44 65.72 65.66
75.77 76.08 76.06 75.80 76.01 75.23 74.94 74.61 73.48 71.60 71.65 71.19 69.50 68.57 66.99 67.07 66.43 66.06 65.64 65.65 66.78 66.54
75.12 75.52 75.35 75.49 75.43 75.89 74.74 74.83 73.58 72.81 71.71 70.75 71.15 66.00 65.99 67.47 67.08 66.93 66.06 65.45 67.55 66.49
74.56 74.62 74.96 75.04 74.96 75.25 75.37 75.34 74.92 74.08 72.43 70.94 71.23 64.81 63.84 66.54 67.28 66.57 66.57 66.73 67.24 67.06
74.21 74.24 75.06 74.83 74.89 74.86 75.62 75.21 75.20 74.18 71.89 71.21 69.22 62.83 62.44 64.29 65.55 65.33 65.54 67.19 67.34 65.75
73.48 73.87 74.50 74.68 74.86 75.10 75.18 75.09 73.99 72.11 69.89 68.07 67.18 61.34 60.80 61.93 63.96 64.24 64.09 66.27 66.63 65.70
73.51 74.21 74.81 75.05 74.94 74.34 74.56 71.66 71.95 69.25 68.32 65.28 66.68 60.33 59.10 59.71 63.61 63.38 62.61 63.45 65.95 62.98
75.74 76.07 75.90 75.46 73.93 72.09 71.59 71.46 69.52 67.98 67.44 66.45 66.27 64.75 57.38 56.40 64.12 64.47 64.05 63.30 63.23 63.49

GFSNIL_sfc_wetblb_018.txt.gz
Wetbulb
72.19 71.73 71.61 70.25 71.09 72.21 72.33 72.54 72.64 71.51 69.67 67.06 66.47 66.97 66.13 65.45 64.76 64.36 62.89 63.90 62.74 61.93
73.19 72.41 71.98 70.70 71.88 71.93 72.60 72.43 72.20 71.64 69.38 67.47 65.92 68.05 66.81 65.51 64.47 65.49 63.59 62.36 61.60 62.35
73.20 73.71 72.85 71.42 71.68 71.96 71.96 72.01 71.50 70.79 69.31 67.99 66.42 66.83 66.85 65.64 64.78 63.86 64.34 63.83 61.73 61.61
72.75 72.72 73.57 73.34 73.01 72.62 71.69 71.07 71.37 70.80 69.45 68.43 67.21 66.03 67.23 64.98 65.14 63.37 63.41 64.33 63.63 62.95
73.94 73.50 72.85 72.94 73.61 72.86 72.28 71.12 71.32 71.00 69.82 69.21 68.45 67.32 66.47 65.56 65.41 64.76 63.17 62.95 63.14 62.43
74.31 74.04 73.62 73.07 73.18 73.05 72.58 71.35 71.05 70.77 70.47 69.18 69.10 67.70 67.30 66.58 65.26 64.20 64.74 64.21 62.89 62.58
74.39 74.34 74.46 74.23 73.50 73.17 73.32 71.43 71.09 70.77 70.47 70.45 69.21 68.07 67.66 67.00 65.43 64.82 64.28 64.60 64.76 63.66
74.61 75.02 75.00 74.57 74.07 73.36 73.67 73.12 71.59 70.93 70.62 69.97 69.77 69.03 67.68 67.03 65.87 65.21 64.62 64.60 64.61 64.87
74.82 74.53 74.54 74.87 74.69 73.51 73.27 73.17 71.80 70.67 70.50 69.80 69.89 66.30 65.38 67.41 66.75 65.96 65.14 64.21 64.03 64.76
74.80 74.44 74.39 74.52 74.36 74.34 73.33 73.00 72.42 70.86 70.56 69.88 70.41 64.43 63.72 65.96 66.49 66.54 66.29 64.61 64.38 65.11
74.38 74.19 74.37 74.29 74.09 74.23 74.76 73.43 73.36 72.31 71.32 71.06 70.76 64.06 62.06 65.14 67.68 66.99 66.80 66.53 65.60 65.56
74.11 73.64 73.84 73.44 73.66 74.24 74.52 74.37 74.19 74.29 72.36 71.39 70.45 61.10 60.31 63.79 66.40 66.16 66.05 66.00 66.65 65.51
74.05 73.41 73.25 73.72 73.97 74.49 74.70 74.58 74.73 72.88 72.03 68.72 66.78 58.15 58.47 62.40 64.53 63.79 63.86 63.98 64.56 61.81
73.42 73.45 73.54 74.02 74.27 74.27 74.51 73.23 71.75 69.28 67.50 67.82 67.10 63.43 57.95 56.80 63.27 62.54 63.40 63.45 63.93 64.69

GFSNIL_sfc_wetblb_021.txt.gz
Wetbulb
71.22 70.49 70.32 69.07 69.32 70.45 71.83 72.10 72.39 71.93 71.29 68.23 65.25 66.09 64.92 63.87 63.61 63.32 62.46 61.37 61.37 61.70
71.29 70.95 70.41 69.47 69.91 70.61 71.56 72.04 71.79 72.19 70.96 68.39 65.95 65.60 65.10 64.01 63.67 63.78 62.27 61.85 62.66 61.34
71.71 71.61 71.15 70.74 70.32 70.49 71.49 71.51 71.09 71.83 70.50 68.65 66.19 66.39 65.61 64.06 63.65 64.06 63.13 62.35 60.89 60.63
71.95 71.96 71.48 71.06 70.93 71.45 71.47 71.21 71.03 71.16 70.20 68.45 66.44 65.85 66.20 65.04 64.49 62.91 63.17 63.24 62.01 60.86
72.18 72.19 72.15 71.65 71.38 71.51 71.43 71.25 70.98 70.76 69.81 68.84 67.39 65.58 66.34 65.39 65.86 64.04 62.05 62.40 62.65 62.49
71.61 71.44 71.87 72.34 72.34 72.06 71.91 70.80 70.84 70.54 70.02 68.87 67.81 66.46 65.56 66.10 65.38 65.16 64.28 62.76 62.48 62.55
71.96 72.07 71.77 72.10 72.27 72.49 72.46 70.76 70.45 70.41 70.29 69.51 68.91 67.98 66.99 65.84 65.43 64.88 64.91 64.99 63.69 62.76
72.63 73.01 72.75 72.34 72.06 71.96 72.00 72.06 70.54 69.93 69.88 69.95 69.10 68.89 67.51 66.93 65.94 65.43 64.92 64.00 64.69 63.96
73.00 73.09 73.06 73.08 72.65 72.26 71.77 71.79 70.69 69.97 69.47 69.09 69.85 66.16 65.51 67.36 66.84 66.19 65.16 63.67 64.61 65.30
72.49 72.76 73.21 73.43 73.05 72.41 71.65 72.06 70.54 70.45 69.95 69.27 69.39 64.48 64.13 66.16 67.30 65.76 65.28 65.72 65.68 65.41
72.83 72.49 73.23 73.29 73.31 73.27 72.33 72.06 71.81 70.45 70.17 70.14 70.14 63.42 62.04 64.72 67.61 66.72 66.41 66.26 65.83 65.17
73.50 73.06 72.96 72.90 73.03 73.74 73.43 72.07 72.12 71.71 70.81 70.69 70.11 61.41 60.43 62.53 67.49 66.67 66.61 66.68 66.88 65.78
73.87 73.46 73.15 73.28 73.34 73.83 74.06 73.71 72.95 72.48 72.49 68.54 70.59 59.50 58.49 63.31 66.96 65.90 66.13 65.52 65.62 62.54
74.03 73.72 73.75 73.66 73.78 73.92 73.71 73.98 73.72 73.51 73.01 70.71 67.14 61.57 56.60 60.10 66.60 66.35 64.82 63.28 61.73 62.73

GFSNIL_sfc_wetblb_024.txt.gz
Wetbulb
70.92 70.49 70.32 70.13 70.65 71.08 71.54 72.47 73.19 72.57 72.45 71.47 69.61 68.84 67.83 66.41 65.51 66.34 66.22 65.26 64.84 64.72
70.77 70.87 70.40 70.64 70.66 71.19 71.86 72.74 73.06 72.91 72.58 71.64 69.29 68.82 67.94 66.30 66.07 65.99 65.63 65.52 65.37 64.70
71.09 71.46 71.31 70.84 70.05 70.36 71.10 72.61 72.69 72.89 72.58 71.29 69.45 68.23 67.87 66.83 66.39 66.24 65.32 64.80 64.80 64.67
71.50 71.60 71.56 70.75 70.87 70.65 71.40 71.84 72.36 72.77 72.20 71.15 69.38 68.48 67.35 66.88 66.59 66.03 65.97 65.84 64.40 64.05
71.73 71.76 71.26 71.16 71.44 71.71 71.25 71.90 72.04 72.28 72.16 71.32 69.65 68.76 68.06 66.84 67.02 66.11 65.44 65.72 65.27 64.71
71.57 71.31 71.24 71.28 71.81 71.45 71.74 71.81 72.05 71.97 71.59 71.01 70.11 68.26 68.51 68.28 67.41 67.00 66.53 66.08 65.81 65.30
71.40 71.55 71.68 71.73 71.98 71.72 71.90 71.73 71.78 71.80 71.72 71.09 70.51 69.35 68.39 68.19 67.90 67.45 67.36 66.96 66.20 65.78
71.25 71.78 71.95 72.25 72.35 72.30 72.13 72.00 71.78 71.66 71.56 71.41 70.54 69.91 69.12 68.13 67.70 67.45 67.25 67.06 66.53 66.23
71.45 71.44 71.46 71.65 72.03 72.36 72.41 72.38 71.72 71.35 71.29 70.89 70.85 66.58 65.51 68.42 68.20 67.81 67.22 65.91 66.71 67.30
71.51 71.56 71.70 71.92 71.63 71.49 71.43 72.13 71.33 71.21 71.02 70.88 71.28 63.78 64.02 66.04 69.06 68.45 67.76 67.02 66.11 65.55
71.68 71.80 72.20 72.32 72.10 71.99 71.94 71.44 71.49 71.20 71.01 70.94 70.70 62.98 62.21 64.95 69.46 68.70 68.05 67.65 66.82 66.80
71.90 71.78 72.15 72.13 72.27 72.62 72.27 71.95 71.80 71.93 71.23 70.98 71.04 61.49 60.45 63.63 68.74 68.06 67.63 67.58 67.25 67.11
72.42 72.10 72.07 72.56 72.89 73.30 73.25 72.62 72.62 71.96 71.68 69.23 71.55 59.77 59.42 63.19 68.93 67.81 67.22 67.40 67.56 62.74
72.89 72.85 72.50 72.84 73.44 73.54 73.53 73.25 72.45 72.35 72.11 72.19 71.01 68.69 57.92 58.56 68.98 68.75 67.11 67.13 66.61 66.61

GFSNIL_sfc_wetblb_027.txt.gz
Wetbulb
76.22 75.04 75.23 75.75 74.66 74.25 74.44 74.87 77.34 76.87 77.05 76.97 76.71 76.01 75.03 74.08 72.98 72.52 71.64 71.65 71.01 70.08
75.68 75.63 75.25 76.21 76.45 74.84 76.66 75.52 76.54 77.22 77.01 77.17 76.53 75.90 74.98 73.08 72.46 71.72 71.72 71.50 71.21 69.87
75.09 75.53 75.84 76.09 75.60 76.05 76.65 76.78 76.67 76.85 77.10 76.95 76.49 75.89 75.19 74.01 73.08 71.73 71.01 70.47 70.87 70.55
74.99 75.29 75.64 75.63 75.86 76.05 76.74 76.90 76.71 76.72 76.53 76.47 76.21 75.64 74.87 74.52 73.33 71.93 71.86 70.96 70.52 70.46
75.06 75.14 75.01 75.02 75.87 76.24 76.19 76.59 77.11 76.86 76.51 76.19 76.16 75.85 74.73 74.23 73.41 72.12 71.50 71.29 70.64 70.09
74.83 74.72 74.70 75.06 75.73 76.15 76.21 76.41 76.08 76.76 76.60 76.00 75.72 75.51 74.96 74.80 74.04 72.85 72.62 71.93 70.96 70.50
74.71 74.99 74.94 75.32 75.72 75.92 76.29 76.22 76.41 76.81 76.95 76.47 75.65 75.55 74.84 74.47 74.37 73.52 72.97 72.60 71.67 71.08
75.15 75.74 75.75 75.45 75.61 76.06 76.27 76.10 76.44 76.59 76.70 76.52 75.55 74.80 74.80 74.60 74.03 73.64 73.09 72.95 72.17 71.63
75.45 75.51 75.45 75.48 75.57 75.94 75.94 75.87 76.45 76.22 76.36 76.19 75.01 68.81 67.47 72.78 73.87 73.66 73.81 73.00 72.64 72.33
74.83 75.01 75.09 75.56 75.72 75.36 75.58 75.87 75.74 75.82 76.06 75.87 76.18 64.87 64.77 67.09 74.67 73.62 73.91 73.66 73.39 71.93
73.87 74.46 75.20 75.37 75.19 75.54 75.66 75.44 75.50 75.52 75.77 75.75 75.66 63.48 62.68 65.78 74.20 74.48 74.43 74.25 73.59 72.75
73.98 74.50 74.97 74.49 74.62 75.07 75.35 75.44 75.49 75.97 75.84 75.38 75.83 61.71 61.33 65.14 72.92 74.02 74.19 74.30 73.76 72.80
75.20 74.88 74.69 75.07 75.14 75.41 75.55 75.22 75.44 75.65 76.03 72.30 75.70 61.03 59.75 64.37 73.58 73.41 72.82 73.87 73.22 63.79
75.95 75.72 75.53 74.66 75.69 76.26 75.82 75.74 75.40 75.21 75.57 75.57 74.19 73.42 58.46 58.60 73.66 73.30 72.35 71.87 70.29 71.65

GFSNIL_sfc_wetblb_030.txt.gz
Wetbulb
79.69 77.02 77.14 78.25 76.69 76.16 75.68 76.54 78.02 78.10 78.59 78.79 78.88 78.91 78.78 77.90 76.90 76.44 75.11 74.05 73.30 70.50
79.27 78.93 77.20 79.43 79.39 77.36 79.37 77.01 77.62 77.86 78.18 78.52 78.75 78.86 78.81 77.17 76.89 75.83 75.26 73.82 73.81 71.85
78.68 79.58 79.56 79.82 79.68 79.39 79.05 79.25 78.15 77.78 77.96 78.17 78.62 78.88 78.91 77.50 77.40 76.22 74.67 73.41 73.12 73.28
77.88 78.35 78.95 79.04 79.55 80.00 79.35 80.18 78.93 79.28 78.02 77.76 78.32 78.83 78.60 78.62 77.55 76.39 75.45 74.80 73.31 73.15
78.89 78.86 78.21 78.76 79.27 80.13 79.73 79.89 80.23 79.70 79.01 78.48 77.92 78.70 78.03 77.59 76.94 76.35 75.45 75.19 74.42 72.83
77.96 77.69 78.54 79.20 79.10 79.83 79.76 79.95 78.42 79.37 79.78 78.89 78.40 78.46 78.05 77.80 77.61 76.90 76.54 75.91 75.14 73.92
78.21 78.42 78.56 79.36 79.25 79.54 79.93 79.82 79.72 79.57 80.24 79.54 78.75 78.10 77.69 77.33 77.41 77.62 76.80 76.79 76.14 75.12
78.59 79.14 79.21 79.01 79.20 79.52 79.89 79.67 79.92 79.73 80.03 80.09 78.35 77.22 78.67 78.52 77.45 77.68 77.05 76.90 76.66 76.01
78.71 79.18 79.03 79.24 79.24 79.44 79.44 79.47 79.69 79.20 79.56 79.40 77.85 70.64 68.28 75.34 77.49 78.42 78.09 77.03 76.52 76.45
78.79 78.62 78.85 79.18 79.33 79.01 78.86 79.44 79.18 79.19 79.37 79.19 79.49 66.71 65.67 68.62 77.37 78.27 78.00 78.01 77.30 76.09
78.34 78.52 79.21 79.30 78.78 78.91 79.08 78.73 78.79 78.93 79.36 79.27 79.35 65.86 63.34 66.95 76.79 78.49 78.39 78.28 77.86 78.23
78.22 77.35 77.91 78.36 78.43 78.88 78.35 78.23 78.40 78.25 79.13 79.31 79.22 63.80 61.48 66.64 76.04 76.46 78.45 78.32 78.16 77.97
78.62 78.11 77.53 78.63 78.74 79.10 78.71 77.70 77.23 77.57 78.89 74.74 79.19 64.02 59.71 66.10 75.30 75.61 75.59 78.18 78.70 66.52
78.72 78.56 78.84 79.38 79.44 79.01 78.43 77.74 78.29 77.17 77.70 78.71 77.71 77.28 58.46 59.03 75.52 75.78 75.45 74.93 75.52 76.06

GFSNIL_sfc_wetblb_033.txt.gz
Wetbulb
80.67 77.81 77.11 78.26 76.05 75.27 75.16 75.62 80.06 80.43 80.11 79.85 80.19 79.57 80.87 78.46 77.71 78.29 76.02 75.65 75.15 71.92
80.08 79.88 78.36 79.20 79.72 78.02 78.72 76.43 79.86 80.36 79.95 80.07 79.93 80.59 80.84 77.44 78.84 78.62 76.91 76.48 75.95 73.03
80.22 80.67 80.24 80.67 80.53 79.05 79.85 80.57 80.88 79.50 79.52 79.63 80.16 80.32 80.89 78.85 79.72 78.87 76.08 74.14 76.45 75.73
79.78 80.08 80.68 79.88 80.53 80.69 81.01 81.60 80.09 80.74 79.91 79.74 79.66 80.27 80.39 79.65 79.61 78.59 78.14 77.20 76.96 75.85
79.94 79.98 80.09 80.34 80.27 81.31 81.17 81.01 81.28 80.94 80.56 79.97 79.62 79.96 80.01 79.09 77.51 78.81 77.27 76.54 76.85 75.26
79.29 79.86 79.42 80.15 80.63 80.77 81.10 81.20 80.93 80.72 80.85 80.16 79.69 79.78 80.35 79.98 79.35 79.24 78.66 78.15 77.64 76.41
79.42 79.49 79.78 80.26 80.67 80.78 81.13 80.79 80.63 80.69 80.64 80.69 80.32 80.01 79.97 79.69 79.47 79.24 79.02 78.79 78.61 77.93
79.68 80.32 80.43 80.21 80.72 80.87 80.96 80.82 81.00 80.53 80.56 80.95 80.52 79.16 79.57 79.30 79.10 79.15 79.11 79.14 79.05 78.76
79.84 80.29 80.39 80.76 80.56 80.92 80.58 80.80 80.75 80.46 80.27 79.95 79.77 71.72 69.01 76.41 79.04 79.27 79.12 78.51 79.07 79.02
79.81 79.85 80.42 80.79 80.83 80.14 80.22 80.70 80.39 80.22 80.48 80.10 80.43 67.97 66.23 68.83 79.10 79.17 78.84 79.24 79.06 78.46
79.33 79.85 80.56 80.72 80.31 80.53 80.70 80.25 80.25 80.14 80.48 80.28 80.32 67.89 63.75 66.70 77.48 78.60 78.79 79.01 79.20 78.93
79.54 79.47 79.93 79.63 80.05 80.45 80.11 80.11 79.85 80.29 80.42 80.16 80.14 66.01 63.11 65.62 76.46 77.16 77.69 78.48 79.38 79.33
80.22 79.74 79.60 79.96 80.39 80.50 80.33 79.68 79.40 79.64 80.24 76.19 79.99 68.18 62.14 65.03 76.65 76.28 76.53 77.85 78.90 68.38
80.09 80.05 80.18 80.33 80.84 80.59 80.22 79.35 79.49 79.26 79.65 80.05 78.66 78.94 60.55 60.27 77.04 76.48 76.24 76.38 76.81 78.18

GFSNIL_sfc_wetblb_036.txt.gz
Wetbulb
78.05 76.79 75.12 77.72 75.01 74.02 75.05 75.46 78.16 77.68 78.38 78.26 77.97 78.36 79.72 78.88 77.90 77.57 76.50 76.78 74.71 73.12
76.35 77.97 76.41 76.59 77.55 77.19 76.39 77.23 79.30 77.94 78.13 77.87 78.42 78.83 79.25 77.30 77.71 78.32 76.79 75.88 75.97 73.97
76.97 77.61 77.96 77.21 77.49 76.49 78.17 77.25 80.54 78.13 77.80 78.15 77.91 79.02 78.56 77.87 78.27 77.36 76.65 75.44 74.54 74.10
77.74 77.12 77.59 77.52 77.91 79.00 77.71 80.27 77.77 79.15 77.88 77.97 77.94 78.15 78.17 77.34 77.23 77.58 76.70 75.08 74.81 73.57
77.74 78.16 77.71 77.09 77.91 78.86 79.58 78.36 80.02 78.92 78.23 78.06 77.67 77.93 77.54 77.10 76.21 77.05 76.09 75.28 74.26 74.08
77.27 77.35 77.80 77.92 77.60 78.28 78.46 78.97 78.43 79.34 78.81 77.67 77.48 77.53 77.69 77.42 77.18 75.40 76.96 76.53 75.32 74.55
77.18 77.54 77.68 78.25 78.54 77.85 78.22 78.23 78.61 78.50 78.32 78.72 77.91 77.76 77.54 77.49 77.70 77.01 76.56 77.23 76.64 75.96
77.46 78.11 78.21 78.22 78.41 78.80 78.44 78.14 78.52 78.44 78.47 78.38 78.66 78.14 77.39 77.42 77.62 77.25 76.46 76.71 77.44 76.87
77.42 77.60 78.30 78.08 78.27 78.54 78.70 78.62 78.48 78.30 78.09 78.13 78.44 72.13 69.82 75.18 77.29 77.57 76.91 76.37 76.91 77.20
77.43 77.35 77.69 78.50 78.21 77.96 78.29 78.72 78.28 78.43 78.47 77.72 78.07 68.65 67.48 69.23 77.14 76.76 76.87 76.68 76.68 76.87
77.89 77.52 78.11 78.21 78.17 78.38 78.49 78.45 78.21 78.38 78.57 78.33 78.13 68.19 65.15 67.25 75.79 76.57 76.78 77.02 76.81 76.71
78.27 78.01 78.02 78.01 78.03 78.51 78.73 78.38 78.68 78.59 78.61 78.24 78.21 66.40 64.24 65.37 74.45 75.38 75.79 76.79 77.25 76.88
77.98 77.91 77.73 78.25 78.68 78.95 79.13 78.67 78.83 78.57 78.90 75.25 78.25 68.71 62.62 64.74 75.57 74.62 74.76 75.69 76.74 68.23
78.31 77.86 78.21 78.72 79.35 79.30 79.10 78.90 78.56 78.42 78.69 78.87 77.43 77.43 62.23 60.01 76.03 75.87 74.87 74.53 74.95 76.09

GFSNIL_sfc_wetblb_039.txt.gz
Wetbulb
73.76 73.35 72.15 72.71 70.41 70.62 72.16 73.88 74.30 75.55 75.14 74.77 74.67 74.42 75.18 74.47 74.56 73.50 71.80 71.99 69.55 66.97
73.05 74.97 72.49 71.69 73.52 70.07 71.38 73.08 74.76 75.20 75.95 75.15 74.87 74.40 74.79 75.45 74.07 74.08 73.05 71.56 71.58 69.33
73.11 73.14 74.88 72.22 71.97 73.18 71.15 71.63 74.12 74.95 75.46 75.33 75.19 75.15 75.03 74.69 74.92 73.88 73.98 72.75 71.54 70.32
74.29 73.30 74.62 74.42 72.50 74.29 72.92 73.72 73.38 75.02 75.09 74.95 75.16 75.78 75.20 74.04 73.87 74.16 73.49 72.54 71.48 70.43
75.21 74.67 73.60 74.58 74.52 73.03 74.76 73.86 75.37 75.82 75.20 75.39 75.09 74.82 75.30 74.23 74.61 73.21 73.32 72.82 70.75 70.81
74.54 75.10 73.97 74.16 74.74 75.09 73.88 75.74 74.26 75.85 75.50 75.25 75.41 75.20 75.11 75.28 74.58 73.58 74.47 73.97 72.09 70.97
74.93 75.00 75.42 74.92 74.52 74.10 75.76 75.17 76.50 74.57 75.63 75.74 75.79 75.52 75.67 75.30 75.02 74.64 73.73 74.53 74.03 72.81
75.30 75.28 75.32 75.25 75.67 75.50 74.40 75.96 75.46 75.83 75.56 76.14 75.69 75.99 75.31 75.49 75.21 74.81 74.80 73.61 75.13 74.59
75.15 75.19 74.91 75.16 75.21 75.84 75.71 74.77 75.31 75.26 75.41 75.66 76.42 70.94 69.27 73.97 75.11 75.13 74.93 74.48 73.63 75.29
75.02 74.74 75.02 75.16 75.45 75.24 75.69 76.09 75.21 75.17 75.69 75.31 75.93 67.64 66.98 69.31 75.53 74.99 75.22 75.11 74.80 73.74
74.60 74.83 75.06 75.30 74.85 75.62 75.82 75.87 75.95 75.85 75.73 76.08 76.13 67.22 65.20 67.22 75.04 75.22 75.08 75.71 75.51 74.87
74.80 74.49 75.03 74.84 75.32 75.62 75.63 75.72 75.97 76.56 76.31 75.97 76.18 65.07 64.09 65.20 73.71 74.83 74.83 75.33 75.52 75.75
74.99 75.02 74.49 75.04 75.32 75.96 76.27 76.02 76.40 76.06 76.77 73.55 76.51 66.67 61.89 64.69 74.22 74.08 74.24 74.66 74.82 67.78
75.63 75.49 75.66 75.49 75.99 76.15 76.30 76.38 76.21 76.09 76.57 77.04 75.82 75.55 61.15 59.83 74.03 75.00 74.60 74.17 74.02 74.49

GFSNIL_sfc_wetblb_042.txt.gz
Wetbulb
71.53 71.81 70.95 69.40 67.99 68.98 71.10 71.50 72.49 74.13 74.13 73.90 73.58 73.35 72.58 72.19 72.74 71.52 70.34 69.91 67.23 65.99
72.54 71.79 71.77 70.47 70.42 68.02 70.35 73.23 72.71 74.18 73.91 73.98 73.56 73.60 73.30 72.66 72.20 72.75 70.72 69.61 70.33 67.35
71.92 73.76 72.97 71.51 70.33 71.35 69.13 72.00 73.18 73.31 74.83 73.81 73.69 73.16 72.78 73.53 72.62 72.84 72.00 71.22 69.28 69.29
71.74 71.76 73.70 72.39 70.37 70.94 71.54 69.83 71.75 73.23 73.88 74.33 73.71 73.21 72.48 72.90 74.01 72.56 72.59 72.27 70.81 69.52
72.94 72.03 71.43 73.45 72.07 71.47 71.53 72.02 70.30 73.39 73.39 74.03 73.98 73.81 73.37 72.84 73.98 73.72 72.79 72.61 71.34 71.07
73.01 72.84 71.92 71.75 74.01 72.91 71.57 72.41 72.35 73.66 73.43 73.88 74.03 74.03 74.16 73.64 73.25 73.28 73.68 73.33 72.35 71.83
72.86 73.58 73.43 72.76 72.34 74.26 73.53 71.31 72.51 74.08 74.30 74.33 74.21 74.12 74.17 74.56 74.12 73.48 73.26 73.57 73.36 72.74
72.95 73.87 74.32 73.63 73.19 73.16 73.72 74.21 72.64 73.74 74.13 74.76 74.58 75.00 74.25 73.91 73.83 74.01 73.50 73.02 74.02 73.72
73.81 73.54 73.62 74.16 73.81 73.13 72.95 72.76 74.31 73.73 74.18 74.10 75.32 69.92 68.83 73.21 74.09 73.85 73.41 72.96 73.13 73.46
73.58 73.86 73.91 74.19 74.10 74.05 73.51 73.35 72.24 73.51 74.27 73.93 74.75 67.01 66.70 68.62 74.38 74.18 73.90 73.72 73.63 73.51
73.99 73.72 74.15 73.90 73.68 73.87 74.42 74.23 73.83 73.02 73.50 74.22 74.41 65.93 64.68 67.01 73.65 74.29 74.24 74.25 74.15 73.93
73.63 73.90 73.81 73.46 73.47 73.94 74.05 74.19 74.62 74.86 74.35 73.46 74.03 64.35 63.11 64.99 72.47 73.75 74.30 74.67 74.51 74.67
73.65 73.86 73.94 73.96 73.99 74.29 74.51 74.59 74.83 74.71 75.38 72.29 74.87 64.75 61.82 64.22 73.39 73.23 73.67 74.68 75.02 67.46
72.70 73.71 74.26 74.50 74.57 74.36 74.51 74.49 74.45 74.46 75.21 75.60 74.31 74.18 60.24 59.92 73.81 74.32 74.02 73.93 74.20 74.94

GFSNIL_sfc_wetblb_045.txt.gz
Wetbulb
69.43 69.18 69.33 69.33 67.84 67.67 69.02 70.09 71.35 72.41 72.39 72.04 72.41 72.20 71.23 70.93 71.18 69.56 69.73 68.53 65.10 65.61
70.17 69.93 69.56 69.30 69.04 68.55 68.52 70.38 70.43 71.71 73.13 72.71 72.47 72.47 71.68 70.86 71.21 71.49 69.80 69.08 68.74 65.78
70.52 70.73 70.65 69.87 68.56 67.75 68.86 70.62 70.96 71.43 72.02 72.37 72.79 72.67 72.36 71.44 71.09 71.40 71.18 69.78 68.27 68.41
70.82 71.12 71.21 70.66 69.89 70.33 68.24 69.98 71.20 71.41 72.21 72.43 72.38 72.46 72.18 72.53 72.47 71.21 71.28 71.17 70.00 68.65
71.16 71.63 71.91 71.37 70.14 70.24 70.99 68.93 70.52 71.38 71.74 72.97 72.91 72.63 72.30 71.69 72.70 72.61 71.42 71.81 71.20 70.91
70.41 70.23 70.80 72.59 72.49 70.51 69.97 70.03 69.62 70.77 71.83 72.33 73.11 72.97 72.58 72.29 72.07 72.56 73.03 72.54 71.99 71.95
71.01 71.12 70.59 70.82 72.18 72.68 71.49 70.48 70.80 71.07 71.81 72.45 72.85 73.23 73.13 72.99 72.50 72.18 72.72 73.25 73.07 72.66
71.96 72.20 72.08 71.22 70.85 71.88 73.00 72.26 71.73 71.46 72.57 72.79 72.92 73.37 73.04 73.18 72.90 72.38 72.08 72.58 72.90 73.10
71.51 72.23 72.38 72.28 71.87 70.85 71.88 73.11 71.98 71.24 71.64 72.56 73.70 69.34 68.27 72.10 72.92 72.88 72.67 72.09 72.27 72.96
71.71 71.59 72.30 72.92 72.70 71.62 71.16 71.74 72.63 72.61 71.94 71.88 72.78 66.58 66.66 68.52 73.28 72.68 72.56 72.46 72.48 72.55
72.23 72.00 72.18 72.47 72.86 72.83 72.47 71.72 71.63 71.63 72.69 72.83 73.20 65.90 64.47 67.03 72.94 73.56 73.44 73.30 73.09 72.82
72.52 72.35 72.74 72.31 72.51 73.12 73.32 72.89 72.49 72.51 71.64 71.49 72.68 63.58 63.72 64.97 71.75 72.82 73.13 73.68 73.74 73.79
72.57 72.80 72.58 73.09 72.95 73.45 73.35 73.30 73.82 73.72 73.74 70.05 72.21 64.10 61.46 64.12 72.45 72.23 72.67 73.50 73.96 67.09
72.61 72.93 73.49 73.37 73.62 73.42 73.05 73.35 73.05 73.18 73.79 74.32 72.85 72.68 60.18 59.57 72.26 72.87 72.80 72.90 73.24 74.03

GFSNIL_sfc_wetblb_051.txt.gz
Wetbulb
75.44 73.38 73.21 74.49 73.27 73.01 73.15 74.19 76.63 76.74 77.10 77.41 77.69 77.47 77.66 76.73 76.45 76.43 75.35 75.31 73.80 72.39
74.78 74.69 73.79 75.35 75.07 73.65 75.29 73.77 75.64 76.67 76.74 77.13 77.30 77.46 77.83 76.44 76.75 76.87 76.78 76.29 76.26 74.42
74.47 74.88 75.15 75.31 74.94 75.32 74.57 74.71 74.72 75.88 76.43 76.74 76.96 77.35 77.62 76.63 77.24 76.93 76.36 76.03 76.32 76.20
73.75 73.75 73.85 74.08 74.56 75.53 75.02 75.07 75.29 76.01 76.24 76.38 76.43 76.93 76.95 76.89 76.82 76.67 76.86 76.78 76.31 76.53
74.24 74.30 73.53 74.30 74.43 75.56 75.60 75.10 75.32 75.91 76.24 76.07 76.24 76.49 76.45 75.95 75.76 76.20 76.45 76.55 76.38 76.09
73.61 73.53 74.18 74.55 74.82 75.25 75.30 75.36 74.92 75.18 75.67 75.91 76.04 76.15 76.23 76.34 76.18 76.35 76.35 77.08 76.95 76.62
73.58 74.08 74.13 75.06 75.40 74.76 75.78 75.34 75.20 75.43 75.63 76.21 76.17 76.31 76.37 76.27 76.34 76.54 76.51 77.10 77.47 77.41
74.19 74.74 75.04 75.18 75.55 75.79 75.70 75.97 75.95 75.50 75.40 75.74 75.51 75.16 75.82 76.24 76.21 76.22 76.46 76.85 77.13 77.47
74.52 74.69 74.92 75.35 75.51 75.84 75.42 75.80 76.38 75.58 75.39 75.18 74.61 68.44 67.39 73.85 75.86 76.65 76.43 76.14 76.88 77.44
74.83 74.50 74.79 75.31 75.59 75.85 75.75 75.56 75.61 75.22 75.36 75.72 76.22 65.58 65.30 68.03 75.48 76.29 76.66 76.95 76.71 76.18
74.90 74.62 75.10 75.07 75.09 75.62 75.58 75.98 75.34 75.31 76.03 76.04 76.04 65.34 63.71 65.68 74.31 76.55 77.24 77.52 77.41 77.51
74.75 74.64 75.12 74.81 75.07 74.96 74.43 74.55 75.25 75.64 76.09 76.00 76.41 63.51 62.88 65.77 74.58 75.05 76.61 77.24 77.47 77.69
74.95 75.02 75.08 75.52 75.55 76.11 75.44 74.96 74.43 74.45 76.08 72.32 76.42 65.02 61.10 64.83 73.98 74.65 74.15 76.76 77.61 67.53
75.44 75.36 75.88 76.28 76.76 76.01 75.55 75.97 75.39 75.06 76.24 76.08 74.80 75.62 60.34 58.82 73.87 74.20 74.25 74.07 74.45 75.72

GFSNIL_sfc_wetblb_054.txt.gz
Wetbulb
77.38 74.71 75.10 75.99 75.23 74.78 74.44 74.95 77.29 78.37 78.59 78.76 78.65 78.48 78.82 77.66 76.88 78.07 76.62 76.77 75.85 72.57
77.54 77.28 75.81 78.29 76.65 75.64 77.52 75.29 76.37 77.24 77.92 78.21 78.53 78.63 78.77 77.02 77.83 77.88 77.85 77.14 77.18 75.98
76.11 76.89 77.46 77.29 77.51 77.41 76.48 76.99 76.57 76.58 77.06 77.12 77.76 78.45 78.79 77.66 78.29 78.30 77.11 76.85 77.39 77.33
75.86 76.21 76.47 76.33 76.57 77.13 77.25 77.25 77.22 76.80 76.46 76.33 77.63 78.13 78.13 77.99 77.51 77.97 78.13 77.89 77.20 77.93
76.99 77.12 75.92 76.31 76.64 77.31 77.21 77.49 77.58 77.52 76.94 76.52 76.96 78.01 77.88 77.33 76.78 76.93 77.17 77.67 77.81 77.32
75.62 75.92 76.59 76.87 76.54 77.76 77.17 77.36 77.22 77.34 77.16 76.76 76.81 77.44 78.05 77.86 77.33 76.94 77.22 77.56 77.78 77.52
75.57 76.32 76.02 77.75 78.12 76.95 78.00 77.36 77.33 77.45 77.39 77.15 76.81 76.73 77.28 77.28 77.48 77.31 77.28 77.99 77.92 78.30
77.35 77.51 77.72 78.13 78.37 78.03 78.15 77.60 77.64 77.63 77.68 77.35 76.85 75.77 76.71 76.87 76.71 77.16 77.24 77.67 78.30 78.53
78.16 78.00 78.14 78.56 78.86 78.92 78.25 78.37 78.15 77.23 77.37 77.13 76.27 68.73 67.31 73.45 76.08 76.81 77.08 76.92 77.79 78.46
78.28 77.94 78.33 78.68 78.90 78.56 78.58 78.21 78.28 77.31 77.54 78.06 77.95 65.70 65.30 67.61 75.58 75.83 77.06 78.34 77.62 77.09
78.16 77.96 78.56 78.56 78.64 78.91 78.13 78.14 77.75 77.38 78.69 78.64 78.39 65.35 63.60 66.07 75.65 76.99 77.76 78.27 78.24 78.58
78.10 77.88 77.57 77.72 77.94 77.66 77.91 77.52 77.54 77.61 78.28 78.11 78.86 63.71 62.82 66.57 75.45 75.34 77.37 77.89 78.80 79.06
78.27 78.38 77.83 78.19 78.42 79.04 77.85 77.74 77.34 77.38 78.37 73.97 78.41 65.39 61.33 66.11 75.56 75.82 74.98 78.07 79.15 68.05
78.40 78.50 78.89 79.26 79.15 78.89 77.66 78.09 77.83 77.48 78.67 79.37 77.33 77.27 60.21 59.29 75.75 74.95 74.89 74.71 74.57 75.64

GFSNIL_sfc_wetblb_057.txt.gz
Wetbulb
78.24 74.73 74.64 76.80 74.95 74.25 73.90 74.96 80.75 78.80 78.49 78.89 78.86 78.54 79.29 77.39 77.00 79.25 76.69 76.99 77.66 73.37
77.54 76.54 74.48 77.01 78.51 76.20 77.68 75.74 76.62 78.52 78.35 78.39 78.33 79.11 79.96 76.69 78.69 78.54 77.99 78.01 77.89 75.73
77.66 78.13 77.69 78.06 79.33 77.90 78.98 79.36 77.83 77.93 77.62 78.09 78.89 79.12 80.53 78.70 79.05 79.27 77.51 75.99 79.16 78.53
77.41 77.41 77.56 78.83 79.10 79.67 79.37 80.14 79.56 79.12 78.22 77.87 77.97 78.89 80.34 80.00 79.15 77.90 78.92 78.70 78.09 79.05
78.11 77.45 76.92 77.26 78.73 79.85 79.68 79.59 80.26 79.52 79.03 77.96 77.51 79.11 79.54 77.63 77.64 77.64 77.58 78.16 78.98 77.22
77.41 77.49 77.11 78.28 78.40 79.30 79.71 80.04 78.03 79.48 79.42 78.75 77.84 79.10 79.56 79.50 78.64 78.25 78.31 78.31 78.57 78.32
77.32 77.70 77.72 78.73 78.84 79.29 79.71 79.79 79.59 79.89 79.74 79.40 78.66 78.38 78.28 78.76 78.90 78.83 78.06 78.83 78.99 78.92
77.80 78.38 78.73 78.29 79.27 79.30 79.72 79.69 80.02 80.11 80.11 79.95 78.37 76.97 78.31 78.86 78.88 79.08 78.37 78.92 79.27 79.05
78.22 78.49 78.26 78.22 78.89 79.40 79.58 79.85 80.00 79.66 79.75 79.54 77.08 69.92 68.04 75.09 77.86 78.91 78.72 78.74 79.23 79.81
78.27 78.21 78.34 78.66 78.95 79.17 79.18 79.91 79.85 79.69 79.89 79.53 79.92 66.41 65.77 68.03 77.10 78.15 78.49 79.08 79.29 78.47
78.78 78.32 78.77 79.04 78.97 79.43 79.56 79.34 79.57 79.68 80.04 80.03 79.87 66.47 63.23 66.19 76.87 76.98 78.09 79.43 79.53 79.56
78.86 78.90 79.11 78.64 78.95 79.59 79.61 79.51 79.55 80.00 80.16 80.11 80.01 64.93 62.80 66.11 76.33 76.06 77.59 78.39 78.68 79.36
79.43 79.62 79.16 79.54 79.91 80.10 79.91 79.59 78.79 79.23 80.47 76.19 80.61 66.00 61.56 66.10 76.14 76.14 75.49 78.13 78.94 68.47
79.95 80.04 80.36 80.67 80.67 80.39 80.02 78.90 79.71 79.44 80.02 80.56 78.87 79.23 60.57 59.56 76.99 75.45 75.45 75.17 75.17 76.43

GFSNIL_sfc_wetblb_060.txt.gz
Wetbulb
76.79 74.67 74.79 77.35 75.30 77.24 75.07 75.21 77.63 78.72 78.11 78.79 78.98 78.87 78.81 78.48 78.05 77.90 77.76 77.52 77.60 75.64
75.52 75.55 73.98 76.96 78.16 76.46 77.76 77.39 77.74 78.33 79.03 78.55 78.93 78.79 78.44 76.90 77.04 77.48 78.24 77.39 78.10 77.08
73.43 75.57 75.68 74.57 77.41 76.18 78.03 77.72 77.77 78.33 78.11 78.44 79.08 79.41 78.94 77.54 77.96 77.33 76.53 77.17 76.77 77.25
75.01 74.49 74.38 75.35 74.08 77.01 76.51 80.36 78.92 79.79 78.58 78.02 77.99 79.21 78.77 77.81 78.24 77.30 77.22 78.25 78.14 76.95
75.93 74.96 74.65 73.25 76.15 76.91 77.43 77.74 79.44 78.60 79.70 77.99 77.91 78.17 77.93 77.40 75.76 77.04 76.86 77.61 77.28 77.61
75.84 75.74 74.91 74.19 74.22 76.68 76.82 78.37 77.62 78.72 77.62 78.02 77.46 77.24 77.57 77.89 77.05 77.01 77.57 77.43 77.47 76.94
75.51 75.69 75.62 76.01 74.21 76.51 77.18 76.51 77.26 77.63 78.14 77.99 77.40 76.91 76.93 77.93 77.59 77.18 76.93 77.78 77.17 77.85
76.13 76.13 76.15 75.60 75.76 74.54 76.18 76.96 77.51 77.50 78.02 78.04 77.74 77.10 76.18 76.82 77.37 77.29 77.03 77.01 77.70 77.63
76.28 76.01 76.13 75.68 76.12 76.32 76.06 76.67 77.29 77.48 77.44 77.64 77.75 70.98 68.84 74.21 75.96 77.47 76.92 76.35 77.01 78.25
76.25 76.12 75.78 76.60 75.78 76.67 76.00 77.00 76.89 77.08 77.55 77.41 77.90 67.57 66.30 68.98 75.90 75.85 76.61 76.81 76.80 77.07
75.84 75.85 76.29 76.14 76.49 76.05 77.08 76.63 76.87 77.00 77.34 77.64 77.91 68.01 63.88 66.41 74.41 75.52 76.37 76.51 76.77 77.12
75.94 76.06 76.13 76.01 76.06 76.47 76.47 76.81 76.85 77.36 77.42 77.42 77.66 65.95 64.74 64.94 72.77 74.02 74.66 75.40 76.53 77.57
76.92 76.37 76.35 76.30 76.46 76.80 77.01 76.84 77.26 77.16 77.68 74.46 77.70 66.49 62.93 64.98 74.61 73.44 74.10 75.14 75.82 67.47
78.25 76.75 77.69 77.23 77.49 77.43 77.21 77.18 77.35 77.27 77.62 78.25 77.07 77.15 60.95 59.30 74.98 74.53 74.37 74.07 74.46 75.70

GFSNIL_sfc_wetblb_063.txt.gz
Wetbulb
72.97 70.97 71.38 72.16 72.06 73.23 73.55 73.53 73.66 74.69 74.35 74.20 75.04 74.07 74.17 73.28 73.66 72.64 73.56 71.53 72.19 71.13
72.70 71.27 70.54 71.09 72.60 72.13 72.57 73.47 74.20 75.71 74.61 74.62 74.74 74.49 73.91 72.97 73.70 73.30 73.17 72.34 72.23 72.15
71.51 72.70 70.80 70.68 72.14 72.01 71.06 73.13 74.15 75.64 74.76 75.32 74.75 74.05 73.82 72.14 73.39 72.86 71.96 72.11 72.62 71.61
70.24 72.15 72.07 71.10 70.17 72.41 71.60 73.60 75.34 74.99 75.02 75.07 74.77 74.81 74.51 72.71 73.64 72.77 72.34 72.77 72.68 72.27
71.33 70.45 71.96 71.05 71.06 70.59 71.79 72.51 74.82 75.41 75.25 74.40 73.87 74.79 74.18 73.28 73.15 73.18 72.84 73.07 72.68 73.21
72.66 70.62 70.52 70.82 70.98 70.06 73.18 71.41 74.72 74.57 74.69 74.54 74.50 73.90 74.23 74.31 73.74 72.87 73.34 73.50 73.68 72.72
72.72 72.84 70.77 71.00 70.27 72.02 72.29 74.64 72.96 74.90 74.34 74.64 73.88 73.78 73.95 74.30 74.40 73.78 73.47 74.79 74.17 74.27
73.57 73.50 73.26 71.88 71.28 69.65 73.11 72.68 74.55 73.73 74.82 74.73 74.97 74.72 73.25 74.05 74.67 74.32 73.69 73.47 74.27 74.12
73.53 73.73 73.47 73.06 72.79 70.94 70.33 73.89 72.82 73.55 73.92 74.66 75.60 70.61 69.17 72.32 73.97 74.90 74.36 73.82 73.63 74.50
73.47 73.45 73.29 73.46 72.94 72.78 70.57 71.92 73.82 73.74 74.08 74.22 75.27 67.91 67.14 69.00 73.36 72.92 74.50 74.39 74.22 74.17
73.31 73.21 73.71 73.43 73.15 72.73 73.24 71.55 71.99 73.37 74.35 74.66 75.11 67.42 65.34 67.31 72.47 73.13 73.41 74.75 74.54 74.24
73.22 73.46 73.68 72.92 73.32 73.14 73.61 73.52 73.02 74.06 74.28 74.50 75.05 65.57 64.42 64.72 69.90 72.09 72.74 73.52 73.90 74.42
73.51 73.64 73.41 73.75 73.23 74.19 73.59 73.56 74.46 73.83 74.77 72.39 74.94 65.95 63.30 64.09 71.85 69.66 71.32 72.26 72.65 66.97
74.05 73.60 74.16 74.08 74.41 74.00 74.24 74.08 73.71 74.32 74.56 75.05 74.26 74.36 61.58 60.45 73.68 73.03 71.27 71.29 71.87 72.89

GFSNIL_sfc_wetblb_066.txt.gz
Wetbulb
70.00 69.41 70.07 70.87 71.51 72.12 72.89 73.08 73.24 73.25 73.12 73.28 72.42 72.89 72.64 71.46 71.95 71.52 71.76 71.06 70.73 69.99
71.24 70.58 69.44 70.77 71.13 72.06 72.36 72.45 72.94 73.43 72.97 73.12 73.59 72.22 72.30 71.85 71.77 72.22 71.37 71.76 70.46 70.83
70.23 71.40 69.46 70.19 69.95 71.44 71.15 71.94 72.32 74.05 73.30 72.82 73.17 72.91 72.00 71.24 71.82 71.99 71.13 71.19 70.75 70.15
69.64 70.36 70.80 69.44 69.73 70.71 70.28 71.74 71.84 73.95 73.40 73.10 73.16 72.19 72.44 70.99 70.94 71.77 71.10 70.58 70.29 71.06
69.01 69.77 70.61 70.72 69.53 69.65 70.30 71.65 72.95 73.77 73.87 73.43 73.47 73.15 72.67 71.65 72.12 72.00 71.16 70.79 70.97 71.66
69.65 68.77 69.35 70.80 70.32 69.20 69.60 70.45 73.51 73.63 73.80 73.77 73.68 73.49 73.53 73.32 72.15 71.43 72.08 72.00 71.46 71.65
71.26 69.91 68.79 69.90 70.77 69.84 68.97 69.64 72.01 73.63 73.70 73.49 73.74 73.72 73.87 73.68 72.67 72.06 71.95 72.46 72.36 72.72
71.80 72.18 70.72 68.79 69.55 69.75 70.00 70.51 70.62 72.37 73.42 73.87 73.62 73.56 72.78 73.10 72.83 72.25 72.02 72.24 72.91 73.35
71.43 72.18 72.01 70.94 68.91 69.30 68.71 70.40 70.88 71.93 72.73 72.81 74.28 69.05 68.35 71.88 72.98 72.86 72.40 71.87 72.09 72.56
72.66 71.94 72.02 72.32 71.14 69.87 69.24 68.49 70.51 71.03 72.61 73.04 73.65 66.56 66.38 68.61 72.63 73.04 73.10 72.93 72.95 72.76
73.01 72.63 72.63 72.26 71.98 71.33 71.05 69.05 68.73 71.33 71.11 72.45 73.43 66.41 64.79 66.89 72.26 71.79 72.53 73.80 73.90 73.38
73.14 72.80 72.74 72.25 72.32 72.41 71.98 71.31 69.47 70.77 72.67 71.92 72.12 64.17 63.74 65.34 71.79 72.30 71.81 72.35 72.94 73.80
71.96 72.75 72.64 72.87 72.65 73.00 72.75 72.46 72.22 71.09 71.14 70.33 73.39 64.92 62.49 64.20 72.74 72.04 71.88 71.84 72.41 66.29
72.30 72.57 73.29 73.08 73.35 73.18 72.89 72.54 72.43 72.18 72.10 72.16 71.75 72.52 61.26 60.67 73.18 72.99 71.80 71.06 71.14 72.06

GFSNIL_sfc_wetblb_069.txt.gz
Wetbulb
68.13 69.27 69.23 69.37 68.93 70.43 71.26 72.31 72.19 72.04 71.80 71.75 71.17 71.49 71.09 70.96 71.20 70.98 70.31 69.89 70.09 68.90
68.66 68.23 68.80 70.03 69.48 70.73 71.06 72.42 72.02 72.78 71.95 72.29 71.93 71.51 71.29 70.89 70.27 70.88 70.16 70.65 69.90 69.40
70.07 70.29 68.71 69.02 70.20 70.08 70.61 71.07 71.71 72.72 71.63 72.02 72.42 72.07 70.90 70.64 70.83 70.77 70.78 70.84 70.45 69.39
68.71 69.29 69.74 68.97 69.31 70.37 70.82 70.89 70.92 72.42 72.44 71.99 71.91 72.17 71.18 70.47 70.51 70.63 70.41 69.77 69.49 69.45
68.57 68.62 69.69 69.59 68.88 68.75 69.42 69.99 71.05 71.26 72.62 72.30 72.19 71.70 71.35 71.04 71.20 69.97 70.13 70.60 69.30 69.61
68.39 67.98 68.38 69.39 69.71 68.40 68.60 69.24 70.72 71.51 72.23 72.38 72.50 72.25 71.87 71.73 71.08 70.80 70.87 71.19 70.32 70.05
68.63 68.11 68.45 68.69 69.14 69.78 68.31 68.76 69.51 72.10 72.37 72.92 72.64 72.76 72.54 72.37 71.85 71.37 71.33 71.29 71.38 71.53
69.89 69.48 68.59 68.09 68.59 69.03 69.22 69.04 68.77 70.28 72.48 72.66 72.92 73.31 72.50 72.54 72.39 72.07 71.68 71.38 71.72 71.86
70.16 70.29 69.34 68.13 67.54 67.92 68.72 68.74 68.29 68.84 70.08 72.04 73.39 68.85 67.80 71.62 72.49 72.30 71.63 71.17 71.21 71.95
69.86 70.21 70.72 70.03 68.27 67.32 67.63 68.23 67.73 68.68 69.51 70.16 71.88 66.41 66.14 68.13 72.48 71.87 71.80 71.48 71.38 71.15
70.75 69.78 70.39 71.16 70.24 68.71 68.05 67.83 67.43 67.48 68.03 69.98 70.85 65.51 64.58 66.55 71.46 72.14 72.15 72.05 71.93 71.57
71.31 71.36 70.84 70.57 70.87 71.09 69.91 68.95 68.68 68.30 67.93 68.40 69.54 63.74 63.50 64.75 70.79 71.41 71.26 71.80 72.22 72.49
68.59 72.01 71.87 71.85 71.56 71.90 71.60 70.98 70.56 69.83 69.03 66.99 69.73 62.51 61.83 64.24 71.85 71.13 71.61 72.03 71.75 65.62
68.71 69.47 70.24 72.52 72.82 72.56 72.04 71.94 71.36 71.11 70.73 69.70 69.49 70.52 59.28 60.03 71.95 71.86 71.39 71.28 71.40 71.87

GFSNIL_sfc_wetblb_072.txt.gz
Wetbulb
69.70 69.86 69.88 69.74 69.83 70.45 71.35 72.28 73.72 73.42 73.27 73.64 72.64 72.62 72.98 72.35 73.01 73.05 72.04 72.46 72.75 71.53
68.67 69.24 69.71 70.53 70.74 70.90 72.14 72.93 73.76 73.89 73.42 73.42 73.14 72.93 72.87 72.37 72.61 73.31 72.80 72.94 72.82 71.99
68.74 68.96 69.48 70.49 70.68 71.04 71.90 72.59 73.51 73.59 73.63 73.47 73.30 73.63 73.24 72.84 72.90 72.71 72.86 72.71 72.85 72.62
69.47 69.51 69.19 69.46 70.70 71.40 71.97 72.25 72.59 73.58 73.83 73.28 72.93 73.38 72.30 72.51 72.90 72.72 72.84 72.63 72.55 72.38
69.13 70.05 70.15 69.38 69.93 70.93 71.50 72.03 72.49 72.77 73.68 73.75 73.52 73.35 73.45 72.95 73.07 72.16 71.93 72.57 72.31 72.15
68.56 68.35 69.45 70.18 70.19 70.29 70.65 71.05 71.74 72.54 72.61 73.43 73.67 73.43 73.49 73.42 73.22 72.95 72.55 72.66 72.53 72.64
68.53 68.56 68.85 69.62 70.19 69.92 70.47 70.63 70.62 71.72 72.36 73.25 73.73 73.63 73.71 73.28 73.28 73.08 72.99 73.28 73.36 73.51
69.24 69.31 69.22 69.21 69.33 70.47 70.39 70.35 70.67 70.96 72.19 73.24 73.74 73.57 73.60 73.63 73.31 73.10 73.03 73.48 73.51 73.47
70.22 69.82 69.15 68.83 68.87 69.08 69.99 70.22 69.99 70.01 71.09 72.28 72.92 68.73 67.85 72.13 73.44 73.50 73.42 72.97 73.42 74.04
70.13 70.01 70.01 69.61 68.84 68.32 68.52 69.52 69.74 69.47 70.04 70.53 72.33 65.97 66.31 68.05 73.80 73.50 73.41 73.42 73.61 73.08
69.74 69.90 70.57 70.65 69.61 68.67 68.53 68.22 68.52 69.04 69.61 69.80 70.49 64.58 64.13 66.71 72.70 73.53 73.55 73.48 73.24 73.24
70.31 70.04 70.35 70.28 70.84 70.62 69.51 68.71 68.38 68.95 68.66 69.11 69.82 62.27 62.42 65.02 71.81 72.21 72.75 73.58 73.75 73.67
67.29 70.61 71.28 70.62 70.73 71.21 71.54 70.65 69.96 69.60 69.58 66.62 68.65 61.99 60.31 63.26 71.11 70.44 71.01 72.76 73.18 65.71
65.91 67.59 70.33 71.60 72.10 71.63 71.56 71.59 71.71 70.74 70.93 70.58 68.49 68.94 58.76 59.18 70.70 70.86 70.34 70.67 71.14 73.16

GFSNIL_sfc_wetblb_075.txt.gz
Wetbulb
75.12 73.89 74.12 75.22 74.53 74.76 74.75 75.50 77.24 77.50 77.39 77.54 77.14 76.72 76.59 75.89 75.75 76.61 75.89 75.79 76.80 76.09
74.77 74.62 74.32 75.25 75.53 74.87 76.21 75.52 76.76 77.19 77.45 77.39 77.33 77.12 77.00 75.46 76.76 77.54 76.87 76.47 76.30 75.77
73.53 74.15 74.97 75.22 75.45 75.67 75.99 76.61 76.47 77.00 77.31 77.53 77.53 77.40 77.15 76.06 76.50 76.43 76.20 75.79 76.45 76.35
73.34 73.51 74.17 74.12 74.95 76.03 76.67 76.92 76.77 76.97 77.09 77.17 77.03 77.49 77.11 76.97 76.67 76.23 76.50 76.58 76.34 76.34
73.43 73.54 73.12 73.31 74.06 75.28 75.82 76.70 76.83 77.19 77.10 77.09 77.25 77.27 76.84 76.30 76.01 75.86 75.43 75.75 76.22 75.74
71.02 72.33 73.23 73.65 73.95 74.45 74.86 75.94 75.94 76.61 76.73 76.94 77.09 77.02 77.16 77.22 76.80 76.64 76.39 76.05 76.00 75.83
70.19 70.31 72.74 74.56 74.67 74.28 74.63 75.08 75.31 75.81 76.25 76.67 77.28 77.28 77.28 77.03 77.00 77.05 76.75 76.78 76.44 76.44
73.02 71.93 71.07 73.16 74.80 74.64 74.58 74.45 74.92 75.17 75.31 75.91 75.89 75.87 76.69 77.03 76.89 76.82 76.67 76.94 76.78 76.77
73.68 74.05 73.76 74.31 74.37 74.45 74.22 74.27 74.46 74.11 74.70 74.95 74.32 68.46 67.70 73.68 76.41 76.84 76.66 76.38 76.81 77.11
73.32 73.07 73.75 73.53 73.80 73.85 73.97 74.33 73.86 73.61 73.86 74.59 75.64 65.91 65.40 68.27 75.44 76.22 76.58 76.91 76.81 76.50
72.37 72.30 73.54 73.58 73.31 73.79 73.35 73.64 73.55 73.47 74.23 74.52 74.39 65.40 63.63 66.29 74.85 76.33 76.82 77.08 77.11 77.00
71.33 72.72 72.90 72.90 73.19 73.63 73.15 72.87 72.77 73.28 73.86 74.10 74.49 62.91 62.66 65.49 73.68 74.04 76.16 77.03 77.08 77.45
68.75 69.86 72.70 73.40 73.80 74.10 74.31 73.56 73.45 73.04 73.56 69.94 73.94 64.78 60.34 63.77 72.02 73.30 72.90 75.47 76.60 66.88
66.49 67.03 67.96 72.76 74.69 74.06 74.41 74.30 74.22 73.97 74.49 74.53 72.98 72.69 59.40 58.23 71.87 72.39 72.98 73.07 73.51 73.98

GFSNIL_sfc_wetblb_078.txt.gz
Wetbulb
77.54 75.85 75.58 76.08 75.02 74.97 75.21 76.02 78.03 78.62 77.45 77.33 77.71 77.87 78.57 76.08 75.51 76.88 74.98 75.89 76.79 74.89
77.23 76.91 75.79 76.43 76.47 75.66 77.14 76.29 77.58 78.43 77.96 77.61 77.68 77.66 78.26 76.21 76.43 76.80 76.68 76.53 76.22 75.44
76.41 77.01 76.91 76.62 76.12 76.69 76.36 77.62 77.08 78.16 78.32 77.77 78.15 78.46 78.62 77.03 77.26 77.03 76.20 75.92 76.54 76.97
75.92 76.34 76.63 76.02 76.21 76.91 76.91 77.39 77.92 78.54 78.25 77.88 77.65 78.21 78.58 78.13 77.17 77.09 76.79 77.12 76.93 77.15
76.24 76.15 75.58 75.82 76.22 77.07 76.80 77.46 78.08 78.65 78.48 77.33 77.46 78.15 78.60 77.40 76.79 76.57 76.28 76.68 77.11 76.59
74.41 75.05 75.14 75.58 76.28 76.59 76.75 76.85 76.83 77.74 78.42 78.03 77.26 77.89 78.34 78.48 78.00 77.17 76.91 76.73 76.96 76.71
74.39 74.66 74.57 75.61 76.37 76.34 77.04 76.69 76.39 76.95 77.61 77.95 77.83 77.87 78.23 78.60 78.47 77.80 77.32 77.96 77.96 77.71
75.23 75.25 75.19 74.17 75.67 76.50 76.77 76.66 76.93 76.36 76.72 77.33 77.29 77.15 78.36 78.44 78.25 78.05 78.17 78.22 78.54 78.28
75.30 75.67 75.68 75.39 72.84 76.08 76.35 76.76 76.90 76.30 76.11 75.71 74.86 68.89 67.40 73.62 77.69 78.06 78.15 77.61 78.12 78.70
73.95 74.79 75.24 75.78 75.98 75.55 75.52 76.36 76.40 76.30 76.30 76.58 76.87 65.98 64.94 67.68 75.56 76.07 77.20 77.88 77.55 77.10
71.88 73.09 74.72 74.90 75.16 75.75 75.87 75.82 75.57 75.80 76.82 76.71 76.97 65.64 64.34 66.08 75.37 75.93 77.13 77.90 78.12 78.35
64.90 68.17 72.03 73.87 74.12 75.57 75.26 75.55 75.59 75.95 76.10 76.50 76.99 63.75 62.88 66.45 74.53 74.20 76.32 77.45 78.48 79.02
64.69 64.78 66.23 70.96 73.08 74.73 75.86 74.88 75.39 75.61 76.29 72.22 76.30 66.30 60.58 65.00 73.97 73.88 73.93 76.72 78.04 67.92
63.59 64.68 65.72 66.27 69.54 73.09 75.35 76.74 76.37 75.55 76.41 76.99 75.24 75.41 60.09 58.89 73.90 73.90 74.11 74.15 74.61 75.35

GFSNIL_sfc_wetblb_081.txt.gz
Wetbulb
78.41 75.95 75.23 76.76 76.79 75.33 74.30 75.40 79.21 78.00 77.70 77.71 77.83 77.62 78.21 76.64 76.38 78.61 75.96 75.99 78.32 75.34
78.45 77.71 77.04 78.78 77.73 75.70 78.98 75.06 77.91 77.64 77.46 77.54 77.64 77.97 78.86 76.48 77.77 77.35 77.17 76.98 77.05 75.91
77.42 78.03 77.88 77.21 77.43 77.58 77.84 77.72 74.14 77.42 78.23 77.86 77.47 77.84 78.72 78.33 78.41 77.10 76.26 74.88 78.71 78.11
77.28 77.25 77.71 77.05 76.95 77.17 77.35 77.79 77.62 78.30 78.76 77.90 78.09 78.06 79.42 79.04 77.19 77.28 76.92 77.35 77.24 77.50
77.65 77.96 76.76 77.07 77.23 77.71 78.08 77.65 78.25 78.80 78.04 78.05 77.36 78.64 78.44 77.25 76.57 76.43 76.43 76.44 77.37 76.16
76.34 76.22 76.72 77.48 77.17 78.57 78.07 78.25 76.74 77.90 78.44 77.90 77.01 78.50 78.66 78.38 77.98 77.39 77.17 77.17 76.95 76.57
75.82 75.99 76.34 77.80 78.89 77.45 79.09 78.26 77.81 78.22 78.92 78.28 77.45 77.36 77.67 78.38 78.17 78.05 77.73 77.85 78.34 77.83
76.48 76.34 76.75 77.01 77.47 78.06 78.69 78.77 78.66 78.68 78.31 78.70 77.28 76.78 78.06 78.30 78.13 77.96 78.54 78.31 78.78 79.08
75.38 74.94 77.04 76.76 76.79 76.83 77.10 79.27 79.61 78.50 78.48 77.91 75.62 69.20 68.14 74.47 78.49 79.21 79.63 78.13 78.79 79.41
69.83 72.25 74.05 76.30 77.36 76.93 76.16 77.46 79.03 78.62 78.56 78.63 78.71 67.51 65.03 68.44 76.13 77.64 79.05 79.32 79.09 78.08
66.20 68.77 71.50 72.82 74.80 75.81 76.89 76.54 76.93 78.10 78.97 79.10 78.74 66.92 64.22 65.70 76.42 76.98 77.80 78.31 79.62 79.68
63.88 65.21 67.94 69.70 69.82 74.20 76.36 75.43 75.31 75.82 77.68 77.86 78.86 65.51 63.19 66.10 75.38 74.70 76.11 77.58 78.21 78.23
65.71 64.49 65.24 65.93 68.76 70.52 74.24 75.53 77.18 75.66 76.86 72.87 77.83 68.00 62.33 64.73 75.08 75.36 75.01 77.16 77.59 68.34
65.41 65.73 65.22 66.27 68.24 68.36 69.15 72.07 74.63 75.44 77.22 77.96 76.20 77.08 61.24 59.27 75.77 75.10 75.04 75.29 75.37 76.64

GFSNIL_sfc_wetblb_084.txt.gz
Wetbulb
78.35 76.74 76.71 77.47 78.24 73.14 72.35 73.85 77.17 78.13 78.52 79.27 77.75 77.80 78.31 78.62 77.69 77.78 77.16 76.41 76.67 76.16
78.06 77.99 75.74 77.61 79.04 77.61 75.89 73.52 76.91 73.87 77.72 78.34 78.87 78.06 78.24 76.83 77.42 77.93 77.85 77.15 77.03 76.75
77.92 78.20 78.37 79.19 79.49 80.25 77.82 74.28 72.92 73.52 73.63 78.31 78.16 78.16 78.19 76.42 76.75 76.90 77.43 76.35 76.83 77.01
77.22 77.92 78.40 77.95 79.12 79.21 80.38 75.83 73.43 67.99 71.48 77.35 78.47 77.81 77.90 77.00 76.30 75.73 76.28 77.01 76.76 76.12
77.94 77.43 77.46 77.47 78.06 79.16 78.60 79.30 79.27 77.03 77.50 77.81 77.36 77.25 77.02 77.04 76.55 75.79 76.05 76.23 75.62 75.53
76.90 77.32 77.24 77.56 77.78 78.71 78.44 78.29 77.90 77.89 78.38 77.97 78.19 78.18 77.77 77.06 77.11 76.98 75.65 76.59 76.31 76.37
76.96 77.08 77.06 78.90 78.52 78.09 78.62 78.07 78.02 78.19 78.50 77.52 77.94 77.92 77.56 77.86 77.63 78.21 76.85 77.69 77.25 77.53
72.36 76.86 78.64 78.29 77.51 78.63 78.34 78.15 78.50 78.24 77.80 78.37 77.84 76.83 77.14 77.61 77.43 76.53 76.17 77.18 77.28 77.70
72.37 72.86 74.85 76.57 77.61 77.67 78.36 78.53 78.48 77.65 77.71 77.12 76.19 70.23 68.18 73.91 76.07 77.54 76.89 75.76 77.16 77.99
68.57 70.12 70.26 72.27 75.20 76.03 76.35 76.99 77.43 77.54 77.68 77.21 77.65 69.10 65.87 66.98 75.82 77.08 77.11 76.99 76.95 77.17
65.45 66.98 68.85 70.35 69.94 71.01 73.25 75.64 75.80 76.04 77.08 77.03 77.47 68.02 66.39 66.44 72.70 74.66 75.63 76.02 77.07 77.01
64.86 64.89 65.62 67.07 67.38 69.00 69.65 70.45 73.74 75.51 75.78 76.30 76.82 67.16 63.28 65.93 73.65 74.28 74.22 74.78 75.88 76.02
66.64 66.99 66.12 66.53 67.17 69.40 69.76 69.83 71.57 72.97 75.37 72.43 75.47 68.32 63.85 64.80 74.89 74.64 74.61 75.02 75.07 67.81
66.08 65.77 67.20 68.03 68.52 68.17 69.04 70.10 70.42 71.58 74.10 75.24 74.29 75.13 62.72 60.36 73.68 75.34 74.74 74.50 74.43 75.43

GFSNIL_sfc_wetblb_087.txt.gz
Wetbulb
72.38 72.51 71.75 72.72 71.05 72.62 69.20 70.82 71.92 73.41 73.65 74.43 73.21 73.44 73.56 73.02 72.77 72.25 72.07 70.66 70.19 70.84
73.14 72.89 72.00 72.01 71.93 71.57 71.45 72.99 73.70 72.70 73.63 73.73 74.04 73.07 73.67 72.74 72.92 72.93 71.92 71.33 71.52 71.10
73.59 74.01 73.98 74.30 73.61 73.11 72.31 72.03 71.99 72.36 71.85 73.19 74.16 74.01 73.23 72.09 72.79 72.41 72.65 73.16 71.19 71.52
74.36 74.65 74.05 73.97 74.53 73.27 71.98 71.87 71.37 70.58 68.66 71.11 73.28 73.71 73.20 72.59 72.32 73.40 71.91 71.51 72.20 70.87
74.26 74.51 74.66 74.49 74.36 74.24 71.87 72.08 70.49 67.28 66.92 69.92 72.49 73.89 73.22 72.72 72.89 72.28 71.57 71.83 72.03 71.43
73.95 74.60 74.58 74.65 74.39 74.61 74.16 73.52 73.26 72.03 71.54 72.85 73.32 73.37 73.59 73.40 72.97 73.18 72.19 72.37 72.22 72.17
70.14 71.55 73.49 74.84 74.81 75.01 74.96 74.46 73.76 73.93 73.22 74.16 74.14 74.53 74.49 74.05 73.02 72.98 73.89 73.29 73.83 72.82
70.47 71.19 72.58 72.56 73.74 73.67 74.44 74.74 74.84 74.34 74.33 75.00 74.37 74.93 74.19 74.31 74.03 73.31 72.94 73.26 73.94 74.46
69.37 69.64 69.39 71.11 72.70 73.01 72.65 73.03 74.03 74.52 74.45 73.96 75.24 70.75 69.31 72.37 72.73 74.34 72.92 72.25 73.35 74.16
67.16 67.88 68.18 69.33 68.67 68.09 69.06 72.84 72.43 72.71 73.23 73.87 73.99 67.60 66.47 66.79 70.31 72.35 73.33 73.64 73.24 73.33
64.67 65.62 66.76 67.21 67.10 68.00 68.11 68.92 70.84 72.18 73.07 73.09 74.23 66.90 64.24 66.25 68.28 69.64 70.84 72.57 73.87 73.88
64.38 64.21 64.12 64.57 65.63 66.89 67.61 68.42 68.85 69.70 71.39 71.47 72.55 67.08 63.36 64.12 69.03 70.12 70.79 71.61 72.32 72.80
62.97 62.18 61.58 63.31 63.81 65.49 66.49 68.15 70.05 69.79 70.53 69.18 71.84 67.28 61.75 63.58 70.22 71.20 72.19 72.19 72.00 65.94
59.72 60.00 60.53 61.02 62.19 62.76 62.89 64.85 66.40 68.56 69.01 70.22 70.20 67.34 60.13 59.22 66.55 70.84 71.54 72.21 72.30 73.18

GFSNIL_sfc_wetblb_090.txt.gz
Wetbulb
71.34 70.85 70.43 70.41 69.56 70.72 70.02 69.41 71.18 72.87 72.97 72.66 72.30 71.88 72.25 71.30 71.31 70.95 70.89 69.53 69.32 68.41
71.66 71.14 70.55 71.25 70.14 71.64 70.30 70.67 71.53 72.08 72.77 73.08 72.77 71.57 72.17 71.37 71.52 71.32 70.77 70.16 69.63 69.52
71.72 72.05 71.61 71.02 71.16 70.73 70.35 71.16 72.09 71.86 72.39 72.46 72.74 72.35 71.88 71.42 71.01 71.45 71.09 71.54 70.73 69.62
72.42 72.45 72.25 72.48 72.57 71.75 71.05 71.00 70.75 70.72 71.71 71.14 72.25 72.78 71.94 71.08 71.10 71.02 71.08 70.80 70.58 70.31
72.47 72.66 72.87 72.79 72.82 73.00 71.10 70.60 70.24 70.24 68.55 68.71 70.72 72.22 72.13 71.55 72.23 71.07 70.71 70.58 70.21 70.74
70.68 70.97 72.51 72.78 73.39 73.21 71.27 70.49 70.63 68.70 66.86 66.21 69.28 71.22 72.68 72.18 71.48 71.85 71.68 70.88 70.40 70.86
68.73 69.58 70.41 72.34 73.06 71.89 72.89 71.18 71.08 71.19 70.58 70.91 71.87 72.22 72.42 72.87 70.93 71.51 72.10 72.45 72.14 72.04
69.36 69.20 70.17 71.72 71.85 73.41 72.72 73.13 73.02 72.64 72.86 72.76 73.15 73.60 72.57 73.22 72.97 71.94 71.54 72.66 72.86 72.75
68.21 68.66 69.13 68.89 68.57 69.88 71.00 71.57 72.21 72.87 72.50 72.08 74.26 68.52 67.27 70.68 72.57 73.12 72.37 71.73 71.74 72.29
66.85 67.10 67.58 67.51 68.10 67.58 67.98 68.98 70.13 70.16 71.32 72.17 72.30 67.96 65.61 66.59 69.07 70.48 71.09 72.19 71.81 72.14
64.90 64.65 65.09 65.49 65.42 66.81 67.35 67.53 68.12 69.40 69.63 69.65 72.07 66.76 64.65 65.72 68.72 69.02 69.46 70.90 72.35 72.55
62.62 62.69 64.10 64.34 65.26 65.80 66.88 66.61 67.40 68.84 68.37 69.33 70.61 63.58 61.77 64.01 69.15 69.38 69.98 70.70 70.81 71.20
59.20 59.93 61.57 61.37 62.30 64.75 64.19 65.18 66.79 66.88 68.75 66.68 71.10 58.31 58.14 62.13 68.30 69.11 70.22 71.44 71.53 65.57
54.53 56.24 57.99 58.30 59.07 60.74 58.90 59.70 61.75 64.25 66.39 66.77 64.23 60.94 57.06 58.14 64.09 64.19 66.08 67.51 69.61 69.79

GFSNIL_sfc_wetblb_093.txt.gz
Wetbulb
69.99 68.53 68.44 69.41 69.57 69.84 69.79 70.11 70.71 71.74 72.16 71.40 71.33 70.52 68.75 70.45 70.27 69.99 70.10 69.15 68.52 67.69
70.54 70.03 69.36 69.53 69.99 69.71 70.94 70.58 70.01 71.12 71.67 71.01 71.01 70.77 70.83 70.64 70.14 70.71 70.13 69.28 68.73 68.68
70.45 70.72 70.22 69.99 70.39 69.75 70.63 70.47 69.67 71.12 71.28 71.89 72.17 71.84 70.34 70.63 70.31 69.72 70.10 70.21 69.96 68.90
70.26 70.84 71.19 70.58 71.02 71.19 70.35 70.13 70.66 71.18 70.88 70.99 71.20 71.73 70.90 70.45 70.63 70.05 70.01 69.61 69.70 69.38
70.65 71.33 71.22 69.99 71.43 72.22 71.31 69.84 70.09 70.23 70.57 70.25 70.36 71.14 71.46 71.08 71.48 70.50 69.95 69.77 69.21 69.14
69.57 70.22 70.96 71.03 71.80 72.32 72.25 70.13 69.93 69.49 68.88 68.09 67.79 69.18 71.30 71.87 70.53 70.77 70.58 70.66 70.03 69.19
68.47 68.47 69.49 70.14 70.76 70.85 72.25 71.21 70.03 69.74 68.64 67.56 67.47 68.12 70.13 71.58 71.03 70.69 71.02 71.11 71.23 70.69
68.74 69.03 68.99 68.36 68.74 70.03 71.33 72.06 71.09 70.41 70.82 70.81 71.34 72.08 71.38 71.57 71.94 71.29 70.54 70.93 71.20 71.84
67.34 67.41 67.23 67.39 67.88 67.84 68.45 69.17 70.23 70.66 70.76 70.27 72.88 69.52 67.52 70.50 71.49 71.87 71.77 71.30 71.46 71.50
66.62 65.36 65.52 65.93 66.09 66.67 66.75 67.55 67.84 69.19 70.12 70.77 70.43 65.60 64.71 66.72 70.01 70.18 70.24 70.82 71.05 71.51
64.35 64.21 64.50 64.39 64.04 65.30 65.28 65.65 66.62 67.66 67.84 68.02 69.51 62.83 62.67 65.03 67.61 68.78 68.91 69.22 70.13 70.80
60.22 62.47 63.03 62.89 63.85 64.36 63.60 63.26 64.23 66.65 67.25 67.48 68.31 59.14 59.52 65.08 68.24 68.63 69.12 69.57 69.93 70.00
54.98 57.45 57.65 59.24 60.68 63.02 61.22 61.90 62.98 64.83 67.09 64.67 64.98 58.17 59.82 63.54 66.49 64.81 65.58 67.23 68.76 60.97
51.78 53.60 53.84 55.83 57.84 57.86 57.59 58.15 62.53 65.63 65.81 65.37 63.17 62.70 55.56 56.50 61.41 60.76 60.64 62.54 64.15 65.47

GFSNIL_sfc_wetblb_096.txt.gz
Wetbulb
70.17 69.71 70.16 70.63 71.06 71.13 71.25 71.89 72.93 73.29 73.57 73.00 72.64 71.60 71.00 72.32 72.57 72.59 72.47 72.10 71.80 71.22
70.89 70.21 69.83 70.86 71.58 71.51 71.92 72.33 72.29 72.74 73.51 72.99 72.69 73.06 72.95 72.88 72.89 73.45 72.86 72.12 71.82 71.63
70.97 71.35 71.32 71.27 71.27 71.16 71.45 72.37 72.10 71.51 72.03 73.01 73.17 73.41 72.57 72.92 73.03 72.66 72.31 72.20 72.64 72.27
70.54 71.48 71.95 71.31 71.92 72.33 72.38 71.94 71.04 71.58 72.07 72.36 72.59 73.38 73.19 72.72 72.56 72.36 72.49 72.68 72.48 72.65
70.61 71.56 71.78 71.10 71.70 72.98 73.09 72.19 70.76 71.89 72.28 72.59 72.01 72.88 72.95 72.54 73.08 71.45 71.95 72.19 72.04 71.48
70.39 71.15 71.16 71.99 72.65 72.84 73.10 72.70 71.68 71.28 71.28 70.20 70.76 71.48 72.58 72.69 72.86 72.43 72.37 71.68 72.13 71.80
68.91 69.09 69.76 70.53 70.89 71.69 72.73 73.10 71.88 71.37 71.27 70.79 70.80 70.09 70.01 71.94 73.05 73.05 73.03 72.71 72.86 72.73
68.50 68.35 68.95 68.71 68.77 69.70 70.24 71.50 72.48 72.04 71.72 71.46 70.57 70.60 71.41 72.24 72.59 73.21 73.22 73.64 73.53 73.53
67.67 67.18 66.46 67.92 67.92 67.94 68.14 68.75 69.54 70.73 71.41 71.56 72.25 66.66 66.57 71.28 73.28 73.77 73.56 73.86 74.32 74.21
65.53 65.51 65.67 66.15 65.99 65.72 66.06 67.20 67.99 68.57 68.75 68.82 70.22 62.80 63.54 65.93 71.24 72.88 73.03 72.91 73.02 72.78
64.90 64.72 64.77 63.79 63.68 63.48 63.73 64.83 65.59 66.95 67.99 68.91 67.33 59.84 60.81 64.28 69.69 71.01 70.51 70.97 71.15 71.40
59.74 60.49 61.76 62.78 63.04 62.77 61.73 61.77 62.59 65.21 68.12 64.21 61.63 57.39 59.88 65.13 68.91 67.94 68.25 69.54 68.48 68.53
55.29 56.60 58.03 59.74 61.52 61.89 60.89 62.10 63.88 65.31 65.25 61.39 61.38 53.71 55.56 59.92 62.31 62.01 63.81 65.53 66.37 62.07
52.60 53.44 54.44 54.50 55.17 55.95 55.49 56.38 60.61 59.27 57.56 55.91 53.81 52.22 51.59 52.66 57.70 58.88 61.83 62.31 62.47 63.44

GFSNIL_sfc_wetblb_099.txt.gz
Wetbulb
76.26 74.76 75.28 75.55 74.95 74.86 75.23 75.31 76.75 76.83 77.61 76.95 76.76 76.11 75.99 75.75 76.38 77.22 76.62 75.80 76.55 75.53
74.92 75.12 75.00 75.60 75.77 75.60 76.27 75.70 76.05 76.42 76.66 77.25 76.84 76.98 76.39 74.74 76.03 76.72 77.03 76.83 76.53 75.94
74.88 75.28 75.60 75.54 75.61 75.66 76.23 75.85 76.08 75.90 76.05 76.45 76.83 77.00 76.85 76.10 76.64 76.39 76.19 75.69 76.34 76.52
74.50 75.50 75.79 75.49 75.57 76.20 76.23 76.17 76.10 75.97 75.19 75.17 75.48 76.66 77.08 76.90 75.85 75.90 76.02 76.29 76.12 75.99
74.87 75.07 75.34 75.33 75.92 76.23 75.86 76.51 76.17 75.98 76.04 76.26 75.86 76.35 76.53 76.15 76.10 75.74 75.23 75.39 75.77 75.45
74.38 74.03 74.31 75.07 75.70 75.81 75.84 76.56 76.30 76.03 75.93 75.97 75.24 75.06 75.80 75.95 76.05 76.24 76.04 75.94 75.51 75.41
72.82 73.96 74.06 74.99 74.76 75.71 76.22 75.87 76.31 76.02 75.90 75.97 74.92 74.68 74.80 74.91 75.68 76.26 75.89 76.22 76.47 76.05
70.45 70.88 72.93 73.46 73.63 73.39 74.93 75.15 75.84 75.91 75.95 75.53 75.17 74.08 74.58 74.80 74.70 74.80 76.21 76.81 76.41 76.79
68.31 69.70 71.08 71.74 71.69 71.84 72.10 73.24 73.73 73.63 73.66 73.28 73.95 62.78 64.51 70.29 75.66 76.48 76.55 76.32 77.06 77.25
67.12 66.81 67.41 69.17 69.70 69.40 70.36 71.21 71.46 71.88 72.64 70.48 66.74 60.56 61.53 65.65 75.21 75.98 76.44 76.12 75.86 75.52
65.72 65.62 65.69 67.13 67.50 67.91 68.88 69.00 69.98 71.53 67.56 65.24 61.77 58.06 59.87 64.89 73.96 74.13 73.13 71.49 70.95 69.51
65.16 64.12 64.67 64.45 65.11 65.94 67.16 67.72 70.45 66.77 65.56 61.93 59.17 54.64 57.53 64.87 66.55 67.25 66.70 66.85 63.90 64.27
60.32 62.75 61.49 63.87 63.41 64.89 66.12 67.06 64.76 60.12 58.47 54.91 55.52 51.89 52.60 59.80 64.67 64.27 64.58 65.13 65.21 57.86
59.30 59.99 60.10 59.38 59.96 61.00 61.07 58.97 57.94 57.06 55.87 53.03 51.08 49.81 49.87 51.21 57.59 58.26 62.23 61.44 61.88 60.77

GFSNIL_sfc_wetblb_102.txt.gz
Wetbulb
76.33 74.31 74.06 75.12 76.22 74.70 76.55 75.54 78.00 76.79 77.08 77.43 77.21 77.68 78.04 76.97 76.05 77.00 76.05 76.07 77.12 75.38
75.80 75.56 75.80 76.06 77.27 76.02 76.54 77.35 77.86 77.78 77.02 77.40 77.37 77.76 77.93 75.98 76.79 77.65 77.36 76.74 76.48 75.81
75.50 75.91 75.40 76.24 75.47 76.62 78.45 78.09 77.77 77.77 77.53 76.86 76.99 77.04 77.48 76.69 76.89 77.18 76.08 75.80 76.86 76.67
75.33 75.34 76.25 75.62 75.55 76.38 76.31 77.56 77.57 78.34 77.87 77.62 76.91 77.43 77.79 77.39 76.64 76.48 76.06 76.56 76.38 76.68
74.65 75.46 74.83 75.53 75.50 76.95 76.23 77.60 77.21 77.57 78.06 77.36 76.38 77.32 77.38 76.45 75.85 76.01 75.02 75.15 75.69 75.68
74.01 74.01 74.90 75.44 75.91 76.88 76.13 76.50 76.72 77.19 76.89 76.35 76.81 77.00 76.80 76.63 76.50 76.41 75.82 75.47 75.33 75.10
74.37 74.48 74.67 75.72 76.47 76.41 77.31 75.60 76.07 76.57 77.09 76.89 76.54 76.81 77.20 76.63 76.50 76.40 75.90 76.64 76.09 76.04
74.15 75.16 75.67 75.76 76.49 76.65 76.86 76.25 77.11 76.68 77.18 77.41 76.86 75.58 77.20 77.24 76.53 76.87 76.37 76.65 76.67 76.70
69.63 71.57 73.24 74.18 74.89 75.69 76.08 76.78 77.01 76.59 76.75 77.02 76.20 62.30 63.79 70.59 76.68 77.24 76.68 76.01 76.76 76.96
69.54 69.60 69.94 71.12 72.80 73.85 74.57 75.13 74.93 75.12 74.72 71.75 70.50 59.81 62.16 65.40 75.87 77.06 76.05 75.98 76.54 76.38
68.92 67.79 67.54 67.67 68.65 70.28 71.64 72.63 73.56 72.09 70.94 68.46 63.53 57.04 60.79 66.71 75.64 73.15 72.28 72.67 71.46 70.79
66.40 65.77 65.54 65.31 66.78 68.34 70.60 71.18 71.10 70.03 67.53 64.63 60.53 53.39 55.53 67.95 71.96 70.56 69.45 67.46 67.78 68.65
65.10 67.56 68.09 68.33 66.46 65.92 69.46 65.86 64.25 64.28 61.54 57.44 56.89 50.62 52.26 61.60 69.56 68.18 68.10 67.83 66.39 56.23
63.23 64.34 65.13 65.41 66.67 64.92 60.74 59.20 60.53 58.93 53.73 53.28 52.84 52.33 49.39 50.33 61.93 65.07 64.40 64.24 63.67 62.34

GFSNIL_sfc_wetblb_105.txt.gz
Wetbulb
77.02 74.99 74.46 76.10 76.21 75.32 74.55 74.98 77.69 77.35 77.26 77.12 77.83 77.58 78.29 76.74 75.43 78.73 75.98 76.63 79.00 75.74
76.43 76.08 76.02 72.28 76.16 76.82 77.56 77.01 78.14 77.13 77.35 77.37 77.28 77.80 78.41 76.24 77.17 77.87 77.27 77.77 77.01 75.96
75.77 76.06 76.34 76.53 76.38 72.31 76.21 76.53 77.40 77.31 77.27 77.41 77.83 77.77 78.13 77.91 77.97 77.16 76.24 74.70 77.71 77.31
75.06 75.14 75.87 75.05 75.65 76.52 76.41 76.65 76.98 77.33 77.15 76.89 77.23 77.61 77.38 78.46 77.08 76.77 76.70 76.63 76.31 76.03
75.70 75.43 74.57 75.02 75.38 76.80 76.65 77.45 76.94 77.58 77.22 76.50 76.98 77.21 77.06 76.93 76.18 75.84 75.62 75.59 76.02 75.59
75.02 74.71 74.86 74.94 75.55 76.37 76.88 76.72 76.90 76.85 76.55 76.66 76.88 76.47 77.03 77.19 76.53 76.61 75.72 75.51 75.87 75.65
75.48 74.89 75.15 77.16 75.98 76.05 77.04 76.68 76.38 77.09 77.61 77.04 76.96 76.83 76.47 76.53 76.57 76.76 76.31 76.53 75.97 76.63
76.26 76.50 76.42 76.17 76.84 76.20 76.34 76.28 76.36 76.25 77.58 76.78 76.26 74.63 75.60 76.41 76.39 76.78 76.41 76.44 76.54 76.63
74.20 74.67 75.07 75.66 75.86 76.36 75.92 76.25 76.49 75.96 76.25 75.97 76.08 62.57 63.50 69.09 76.35 76.49 76.67 76.15 76.61 76.50
71.67 70.88 71.60 72.45 74.42 74.36 74.81 75.66 75.85 75.47 75.26 74.51 72.20 58.71 60.93 66.02 74.73 76.22 76.66 76.40 76.40 76.23
69.53 69.55 70.69 70.08 69.34 70.63 72.00 74.13 74.30 73.65 72.08 70.15 65.11 55.77 57.25 62.78 75.34 76.49 75.47 75.52 74.60 74.53
70.90 69.42 67.46 67.10 68.31 69.46 70.59 71.25 70.04 69.62 68.86 66.28 62.85 52.48 54.37 63.03 74.41 72.39 71.94 70.61 67.11 70.12
69.25 66.83 66.36 66.45 66.11 67.61 67.46 66.47 66.67 64.11 63.75 57.92 60.60 50.45 51.45 57.75 72.16 71.69 69.39 67.16 63.70 56.38
65.54 65.80 66.76 67.43 68.30 66.46 65.46 64.04 63.37 61.85 59.60 57.17 55.51 51.22 49.75 50.83 61.64 63.02 68.39 67.59 65.74 62.55

GFSNIL_sfc_wetblb_108.txt.gz
Wetbulb
77.63 76.46 74.48 73.28 72.98 69.50 71.09 72.12 77.15 78.88 78.45 78.91 79.13 78.71 79.15 78.28 77.14 77.73 77.45 78.28 77.15 76.38
78.24 77.70 77.24 74.91 73.49 71.52 72.78 73.17 74.44 77.44 78.57 78.20 78.08 79.05 78.23 77.60 76.22 75.32 72.75 76.60 77.91 76.79
76.78 77.53 77.71 74.62 71.98 70.81 69.97 73.19 69.83 72.43 78.39 79.12 76.76 76.92 78.76 76.66 75.48 77.12 76.89 76.33 76.02 77.66
75.55 76.31 77.09 76.83 75.79 70.65 72.15 74.14 71.05 75.66 79.35 78.76 77.04 76.85 78.55 77.66 77.21 76.24 77.56 77.72 76.00 75.96
76.03 75.85 75.56 76.82 75.78 78.45 77.69 78.79 78.09 78.25 78.09 78.22 78.09 78.65 77.79 76.39 76.34 74.19 75.46 76.78 77.06 76.34
75.88 76.00 76.90 74.67 76.34 78.09 78.35 77.98 77.54 77.90 77.34 76.83 76.77 75.86 77.82 77.74 77.18 76.05 75.33 76.84 76.81 76.12
76.20 75.24 76.14 74.67 76.17 77.44 78.24 77.37 77.92 76.96 76.09 76.97 76.96 76.08 77.09 77.67 76.49 76.73 75.83 76.17 76.08 73.48
73.07 75.39 76.11 76.12 77.43 77.31 77.43 76.32 76.61 77.42 77.14 77.07 72.74 67.40 68.41 75.54 76.87 76.00 75.52 77.16 75.92 76.90
73.34 72.82 72.34 73.32 76.08 76.71 76.59 76.93 77.54 76.09 76.45 75.85 66.92 61.76 62.98 66.91 75.46 76.29 76.17 75.63 75.66 75.00
73.99 73.06 72.00 72.10 74.29 73.04 74.16 75.72 75.69 75.90 74.94 70.12 64.09 57.72 59.22 63.42 71.23 74.89 76.56 77.08 76.94 75.64
71.25 70.74 70.34 69.97 72.40 72.46 71.20 70.72 70.77 70.23 70.14 68.23 58.82 54.92 56.33 60.62 70.09 75.53 75.69 73.31 73.61 69.68
70.82 69.64 69.52 68.57 69.25 69.50 69.38 69.05 67.38 66.75 64.31 64.10 56.65 52.46 54.13 60.70 75.64 72.06 66.92 65.43 62.29 65.18
70.82 69.76 68.52 67.86 67.07 68.57 68.72 66.20 64.28 61.51 59.09 59.02 56.31 50.95 52.26 59.41 71.35 70.29 65.92 63.28 60.06 56.91
69.00 68.77 68.05 67.15 69.53 67.38 65.17 63.23 61.18 58.89 57.38 55.26 54.27 51.85 50.83 51.92 60.64 62.29 61.54 64.29 61.70 60.09

GFSNIL_sfc_wetblb_111.txt.gz
Wetbulb
71.94 70.99 70.04 70.67 70.81 67.72 68.10 70.31 71.62 72.35 73.32 73.11 74.08 73.58 73.63 72.39 73.07 71.97 71.46 71.13 71.36 72.29
71.80 71.02 70.86 70.82 70.39 69.26 67.40 69.83 71.76 72.52 72.75 73.75 73.87 73.37 73.33 72.80 71.70 71.71 70.37 71.45 71.74 71.80
72.42 72.01 71.28 70.54 70.19 67.40 67.74 69.08 71.38 72.39 71.84 73.76 73.01 72.31 72.86 72.11 71.14 72.19 71.72 72.29 70.99 71.31
72.36 72.12 71.21 71.55 70.15 69.54 68.70 70.12 70.27 70.84 71.50 72.86 72.21 73.29 72.69 72.36 71.97 73.16 71.47 72.24 71.70 71.24
72.34 72.27 72.07 71.97 70.39 68.30 68.98 71.04 71.12 70.15 72.76 72.69 72.77 73.14 71.42 72.09 73.28 71.77 71.64 71.63 71.21 71.11
72.35 72.56 71.37 71.99 72.50 71.87 71.44 72.63 73.38 73.51 72.41 72.80 73.20 72.86 73.24 73.22 72.66 72.58 72.46 72.17 71.82 71.21
70.90 71.56 71.84 71.45 72.00 73.50 73.24 72.72 71.91 72.77 72.81 72.32 72.14 69.87 71.91 73.37 72.67 72.28 72.78 74.01 72.59 71.05
71.81 71.87 72.68 72.96 71.15 73.46 73.18 72.98 72.54 72.28 72.08 68.64 67.68 65.33 65.62 68.08 71.72 71.63 71.52 72.38 72.11 72.72
70.25 71.08 71.36 71.55 71.01 70.74 70.90 70.24 71.29 71.21 70.37 64.83 62.73 61.73 63.49 65.74 68.28 71.81 71.69 71.18 71.47 68.51
70.49 70.24 70.38 70.44 71.03 71.16 70.83 70.74 69.70 69.48 64.31 58.05 56.22 56.72 58.02 62.35 66.51 70.32 71.25 70.66 70.28 65.17
69.79 69.02 68.01 68.03 68.32 70.05 70.07 69.97 68.44 66.91 65.57 59.07 54.32 55.01 56.08 59.45 66.13 65.92 63.69 65.16 62.69 59.52
68.26 67.32 67.41 66.84 67.09 68.40 68.49 66.39 64.74 64.01 61.56 55.95 51.53 53.33 55.30 62.20 66.91 64.31 59.97 59.02 60.36 57.80
68.46 67.56 66.32 65.65 65.87 66.79 64.79 62.56 61.05 59.30 58.38 55.35 50.56 51.91 53.42 60.26 67.07 61.80 57.30 55.72 54.93 56.58
67.61 67.36 66.39 65.63 65.20 65.30 62.42 59.61 58.14 55.91 53.56 52.64 52.32 50.26 51.57 53.20 57.16 60.76 60.69 58.54 55.44 53.71

GFSNIL_sfc_wetblb_117.txt.gz
Wetbulb
69.08 68.56 67.91 67.82 67.84 67.89 68.23 69.07 69.71 70.59 71.46 71.47 71.82 70.55 71.20 70.28 71.28 70.06 69.61 69.25 69.62 66.68
69.79 69.19 68.89 68.57 67.88 68.20 68.41 68.74 69.06 71.42 71.10 71.54 71.18 71.71 71.19 70.30 70.43 70.10 68.64 69.86 69.49 68.61
69.68 69.88 69.43 69.14 68.76 68.49 67.64 67.10 69.31 70.52 70.97 70.79 70.99 71.92 71.16 70.52 70.09 70.01 69.35 70.52 69.03 69.29
69.44 69.63 69.25 68.74 68.93 68.76 67.60 66.59 66.77 67.53 70.02 69.47 70.85 71.29 70.54 70.70 70.31 69.68 70.10 70.05 69.07 68.94
69.67 69.72 68.75 68.35 68.34 68.13 66.46 65.65 66.14 67.96 69.21 68.94 70.44 69.74 70.15 70.42 71.46 70.50 69.58 69.35 69.33 69.23
69.39 69.73 68.70 68.20 68.37 68.31 67.91 66.39 67.39 69.24 68.61 68.37 70.17 70.92 70.84 70.39 70.52 70.81 70.41 70.53 69.92 69.70
69.85 69.77 69.90 69.18 68.98 68.65 67.73 67.15 66.72 68.85 69.45 69.97 70.25 69.03 69.45 70.51 71.30 71.28 70.95 70.99 71.09 70.63
70.62 70.49 70.27 69.61 69.50 69.68 68.51 67.81 68.40 69.71 68.99 67.64 67.42 66.88 66.11 67.71 69.73 70.58 69.90 70.26 70.26 69.19
69.46 70.16 70.12 70.25 70.18 70.66 69.83 69.92 69.15 69.04 66.79 63.97 62.92 59.75 63.83 64.11 67.17 68.48 69.46 68.83 66.70 66.36
69.56 68.63 69.35 69.89 70.48 69.87 69.54 69.38 67.53 65.18 63.05 61.38 59.59 57.89 58.71 61.85 64.32 66.92 68.14 68.32 65.02 61.25
68.70 68.27 68.79 68.92 68.95 69.11 69.38 69.20 67.39 64.52 62.32 59.62 59.15 56.44 57.46 60.68 63.74 64.91 63.29 63.94 61.42 59.18
68.57 67.84 67.62 67.48 67.42 67.66 68.47 68.97 66.76 64.25 60.74 60.26 58.61 55.99 56.56 63.50 63.42 60.60 59.26 59.49 60.36 60.96
67.80 67.12 66.78 66.80 67.12 66.30 66.10 63.56 61.85 59.09 58.06 56.83 57.25 55.74 56.60 62.21 61.17 58.23 56.68 56.92 57.05 57.08
67.30 67.10 66.73 66.46 65.94 63.00 60.22 57.86 56.05 54.00 52.33 51.53 52.22 52.34 54.47 57.42 58.98 56.85 54.92 53.96 53.32 53.58

GFSNIL_sfc_wetblb_120.txt.gz
Wetbulb
69.92 69.81 69.67 69.60 69.72 69.93 70.15 70.91 71.87 72.19 73.08 73.32 73.67 72.98 73.54 72.78 72.96 72.78 72.59 72.10 72.34 70.42
69.81 69.73 69.35 69.42 69.77 69.71 70.13 70.13 71.21 71.85 72.84 73.05 73.37 73.55 73.14 72.39 72.37 72.80 72.26 71.64 72.30 72.25
70.15 70.33 70.45 70.30 69.53 69.26 69.76 69.99 70.60 71.26 72.32 72.52 72.90 73.50 73.32 73.12 73.01 72.32 71.71 72.25 72.22 72.45
69.65 70.39 70.75 70.31 70.38 70.10 69.99 68.78 69.02 70.26 71.10 71.42 71.93 73.27 73.29 73.11 72.92 71.98 72.38 72.52 72.21 71.76
69.68 70.29 69.93 69.76 69.99 70.24 69.62 69.02 68.67 68.59 69.65 71.13 71.41 72.88 72.31 72.48 73.62 72.10 71.82 71.71 71.94 71.95
69.52 69.89 70.01 69.74 69.94 69.99 69.52 68.74 67.97 68.29 69.72 70.77 70.99 72.22 71.82 71.97 72.51 72.59 72.64 72.38 72.18 72.06
69.99 70.38 70.39 70.38 70.08 70.07 69.99 69.45 68.32 69.36 70.76 70.41 70.67 72.24 72.04 71.98 72.29 72.54 72.87 72.82 72.86 72.97
70.70 71.20 71.23 70.93 70.48 70.56 69.87 69.78 69.61 69.09 71.09 70.94 70.20 68.77 68.68 70.10 71.16 70.82 71.49 72.31 72.49 71.74
70.42 70.79 70.93 70.79 70.77 70.91 70.89 69.90 69.61 70.65 70.50 68.06 65.65 61.68 64.37 66.29 69.14 70.34 71.02 71.45 70.98 69.65
70.50 70.18 69.84 70.49 70.43 70.36 70.41 69.58 70.18 68.83 66.51 64.18 63.52 59.03 60.74 62.36 66.65 68.44 69.92 70.78 69.07 66.05
68.99 69.01 69.10 69.74 69.24 69.26 70.19 68.02 68.11 66.59 65.10 63.21 62.11 57.92 57.96 60.52 64.52 67.17 66.85 68.31 66.33 64.27
68.72 68.33 68.27 68.13 67.95 68.83 68.92 68.72 67.59 66.10 63.81 62.91 61.30 57.79 58.65 63.36 64.35 61.79 62.22 62.78 63.03 64.19
68.61 68.09 67.95 67.21 67.32 66.93 67.45 66.57 64.78 62.20 61.97 60.32 60.78 56.17 56.71 62.06 63.21 60.48 59.00 58.84 57.97 57.49
67.72 67.95 67.93 67.05 66.18 64.55 63.13 60.77 59.74 57.99 57.23 55.13 55.21 56.99 55.97 59.25 61.70 60.18 57.68 56.57 55.48 55.26

GFSNIL_sfc_wetblb_123.txt.gz
Wetbulb
75.53 74.39 74.38 75.08 74.46 74.13 74.14 74.73 76.31 76.20 76.94 76.86 77.19 77.12 77.56 76.61 76.25 76.36 76.10 76.00 76.52 75.38
74.75 74.95 74.58 75.29 75.15 74.17 75.02 74.60 74.99 75.72 75.95 76.56 76.73 76.99 77.12 75.51 75.97 76.59 76.53 75.80 76.00 75.57
74.42 75.05 75.25 75.12 74.67 74.79 74.74 74.71 74.71 74.86 75.36 75.86 76.52 76.86 77.14 77.04 76.78 76.55 76.08 75.25 76.30 76.64
74.04 74.32 74.59 74.52 75.02 75.16 74.93 74.39 73.94 74.64 74.88 75.34 75.63 76.26 76.68 76.83 76.58 76.16 76.21 76.09 76.24 76.18
73.62 74.19 73.79 74.26 74.67 75.22 74.92 74.83 74.66 73.80 73.84 73.94 74.99 75.85 76.04 75.75 75.59 75.70 75.41 75.31 75.77 75.78
73.10 73.43 73.40 73.95 74.41 74.89 74.58 74.26 73.65 72.80 72.94 73.16 73.37 74.78 75.80 76.22 75.90 75.39 75.63 76.00 75.30 75.20
72.72 73.01 73.30 74.12 74.38 74.45 74.49 73.99 73.49 73.12 72.56 73.16 74.40 74.19 74.86 75.63 75.37 75.47 75.63 76.15 75.87 75.59
74.01 73.83 73.97 74.46 74.74 74.85 74.74 74.20 74.35 73.22 73.07 73.98 74.62 73.84 74.45 74.67 75.15 75.47 75.28 75.18 75.64 75.68
73.74 73.51 74.19 74.53 74.92 75.06 74.91 75.16 74.72 73.94 73.56 73.29 73.14 63.06 64.89 68.96 73.12 73.80 74.10 73.05 74.26 75.23
72.18 72.69 71.40 72.23 74.51 73.25 74.99 75.54 74.82 74.29 74.19 73.27 71.76 59.82 60.87 62.46 70.63 72.60 73.37 74.13 74.94 74.14
71.76 71.25 70.87 70.47 71.10 70.27 73.77 71.93 74.41 73.35 72.16 69.77 68.40 58.65 58.66 60.76 69.13 70.62 72.11 71.88 73.42 73.55
69.38 68.96 69.31 69.27 69.57 69.82 70.13 70.25 68.82 69.90 71.33 68.91 65.73 58.71 58.77 62.45 68.42 67.54 67.56 67.29 67.39 68.87
69.00 69.23 68.84 69.25 68.51 69.05 69.73 69.07 68.57 67.10 67.38 61.98 63.50 57.65 56.56 61.05 65.75 63.55 61.99 61.23 61.62 56.92
70.10 70.26 69.56 68.46 67.62 66.78 64.95 64.03 62.19 59.74 58.01 57.95 57.39 59.21 56.81 56.68 63.84 63.15 61.19 60.82 60.03 58.98